Proxecto Medidor Ambiental

IES Escolas Proval - IES Val Miñor - Hermes Smart Control

MEDIDOR 4 - Consulta de Datos

DIA:MES:ANO:    TIPO DE GRÁFICA:

Arquivo diario: medidor4_datos_2024_03_04.txt

DD/MM/AAAA; HH:MM:SS; MED; 'TEMP';  'HUM';  'CO2'; 'LUM' ; 'PRES'; 'VAL6'; 'VAL7'; 'VAL8'; 'VAL9';'VAL10'  
04/03/2024; 00:00:36; 004;  21,90;   50,6;    431;      0;       ;       ;       ;       ;       ;        
04/03/2024; 00:01:36; 004;  21,89;   50,6;    431;      0;       ;       ;       ;       ;       ;        
04/03/2024; 00:02:36; 004;  21,87;   50,6;    431;      0;       ;       ;       ;       ;       ;        
04/03/2024; 00:03:36; 004;  21,90;   50,6;    430;      0;       ;       ;       ;       ;       ;        
04/03/2024; 00:04:36; 004;  21,90;   50,6;    430;      0;       ;       ;       ;       ;       ;        
04/03/2024; 00:05:36; 004;  21,90;   50,6;    431;      0;       ;       ;       ;       ;       ;        
04/03/2024; 00:06:36; 004;  21,93;   50,6;    431;      0;       ;       ;       ;       ;       ;        
04/03/2024; 00:07:36; 004;  21,85;   50,6;    429;      0;       ;       ;       ;       ;       ;        
04/03/2024; 00:08:36; 004;  21,90;   50,6;    431;      0;       ;       ;       ;       ;       ;        
04/03/2024; 00:09:36; 004;  21,87;   50,6;    431;      0;       ;       ;       ;       ;       ;        
04/03/2024; 00:10:36; 004;  21,89;   50,6;    432;      0;       ;       ;       ;       ;       ;        
04/03/2024; 00:11:36; 004;  21,91;   50,6;    433;      0;       ;       ;       ;       ;       ;        
04/03/2024; 00:12:36; 004;  21,94;   50,6;    434;      0;       ;       ;       ;       ;       ;        
04/03/2024; 00:13:36; 004;  21,90;   50,5;    432;      0;       ;       ;       ;       ;       ;        
04/03/2024; 00:14:36; 004;  21,91;   50,6;    430;      0;       ;       ;       ;       ;       ;        
04/03/2024; 00:15:36; 004;  21,91;   50,6;    431;      0;       ;       ;       ;       ;       ;        
04/03/2024; 00:16:36; 004;  21,91;   50,5;    432;      0;       ;       ;       ;       ;       ;        
04/03/2024; 00:17:36; 004;  21,94;   50,5;    432;      0;       ;       ;       ;       ;       ;        
04/03/2024; 00:18:36; 004;  21,94;   50,5;    432;      0;       ;       ;       ;       ;       ;        
04/03/2024; 00:19:36; 004;  21,96;   50,5;    432;      0;       ;       ;       ;       ;       ;        
04/03/2024; 00:20:36; 004;  21,94;   50,5;    431;      0;       ;       ;       ;       ;       ;        
04/03/2024; 00:21:36; 004;  21,93;   50,5;    432;      0;       ;       ;       ;       ;       ;        
04/03/2024; 00:22:36; 004;  21,91;   50,6;    434;      0;       ;       ;       ;       ;       ;        
04/03/2024; 00:23:36; 004;  21,85;   50,7;    430;      0;       ;       ;       ;       ;       ;        
04/03/2024; 00:24:36; 004;  21,84;   50,7;    431;      0;       ;       ;       ;       ;       ;        
04/03/2024; 00:25:36; 004;  21,85;   50,7;    433;      0;       ;       ;       ;       ;       ;        
04/03/2024; 00:26:36; 004;  21,90;   50,7;    434;      0;       ;       ;       ;       ;       ;        
04/03/2024; 00:27:36; 004;  21,89;   50,6;    434;      0;       ;       ;       ;       ;       ;        
04/03/2024; 00:28:36; 004;  21,90;   50,6;    435;      0;       ;       ;       ;       ;       ;        
04/03/2024; 00:29:36; 004;  21,97;   50,5;    435;      0;       ;       ;       ;       ;       ;        
04/03/2024; 00:30:36; 004;  22,04;   50,4;    434;      0;       ;       ;       ;       ;       ;        
04/03/2024; 00:31:36; 004;  22,00;   50,4;    434;      0;       ;       ;       ;       ;       ;        
04/03/2024; 00:32:36; 004;  22,01;   50,4;    434;      0;       ;       ;       ;       ;       ;        
04/03/2024; 00:33:36; 004;  21,99;   50,3;    433;      0;       ;       ;       ;       ;       ;        
04/03/2024; 00:34:36; 004;  21,97;   50,4;    431;      0;       ;       ;       ;       ;       ;        
04/03/2024; 00:35:36; 004;  21,91;   50,5;    432;      0;       ;       ;       ;       ;       ;        
04/03/2024; 00:36:36; 004;  21,90;   50,6;    434;      0;       ;       ;       ;       ;       ;        
04/03/2024; 00:37:36; 004;  21,85;   50,6;    434;      0;       ;       ;       ;       ;       ;        
04/03/2024; 00:38:36; 004;  21,87;   50,7;    435;      0;       ;       ;       ;       ;       ;        
04/03/2024; 00:39:36; 004;  21,76;   50,8;    435;      0;       ;       ;       ;       ;       ;        
04/03/2024; 00:40:36; 004;  21,85;   50,7;    434;      0;       ;       ;       ;       ;       ;        
04/03/2024; 00:41:36; 004;  21,90;   50,7;    434;      0;       ;       ;       ;       ;       ;        
04/03/2024; 00:42:36; 004;  21,93;   50,6;    435;      0;       ;       ;       ;       ;       ;        
04/03/2024; 00:43:36; 004;  21,93;   50,6;    436;      0;       ;       ;       ;       ;       ;        
04/03/2024; 00:44:36; 004;  21,99;   50,5;    436;      0;       ;       ;       ;       ;       ;        
04/03/2024; 00:45:36; 004;  22,01;   50,4;    434;      0;       ;       ;       ;       ;       ;        
04/03/2024; 00:46:36; 004;  21,93;   50,5;    435;      0;       ;       ;       ;       ;       ;        
04/03/2024; 00:47:36; 004;  21,94;   50,5;    435;      0;       ;       ;       ;       ;       ;        
04/03/2024; 00:48:36; 004;  21,94;   50,5;    435;      0;       ;       ;       ;       ;       ;        
04/03/2024; 00:49:36; 004;  21,93;   50,5;    435;      0;       ;       ;       ;       ;       ;        
04/03/2024; 00:50:36; 004;  21,94;   50,6;    435;      0;       ;       ;       ;       ;       ;        
04/03/2024; 00:51:36; 004;  21,94;   50,5;    435;      0;       ;       ;       ;       ;       ;        
04/03/2024; 00:52:36; 004;  21,94;   50,5;    435;      0;       ;       ;       ;       ;       ;        
04/03/2024; 00:53:36; 004;  21,89;   50,6;    435;      0;       ;       ;       ;       ;       ;        
04/03/2024; 00:54:36; 004;  21,87;   50,6;    435;      0;       ;       ;       ;       ;       ;        
04/03/2024; 00:55:36; 004;  21,91;   50,6;    435;      0;       ;       ;       ;       ;       ;        
04/03/2024; 00:56:36; 004;  21,87;   50,6;    437;      0;       ;       ;       ;       ;       ;        
04/03/2024; 00:57:36; 004;  21,90;   50,6;    438;      0;       ;       ;       ;       ;       ;        
04/03/2024; 00:58:37; 004;  21,89;   50,6;    437;      0;       ;       ;       ;       ;       ;        
04/03/2024; 00:59:37; 004;  21,89;   50,7;    437;      0;       ;       ;       ;       ;       ;        
04/03/2024; 01:00:37; 004;  21,89;   50,6;    438;      0;       ;       ;       ;       ;       ;        
04/03/2024; 01:01:37; 004;  21,89;   50,7;    437;      0;       ;       ;       ;       ;       ;        
04/03/2024; 01:02:37; 004;  21,90;   50,6;    438;      0;       ;       ;       ;       ;       ;        
04/03/2024; 01:03:37; 004;  21,89;   50,7;    437;      0;       ;       ;       ;       ;       ;        
04/03/2024; 01:04:37; 004;  21,91;   50,6;    437;      0;       ;       ;       ;       ;       ;        
04/03/2024; 01:05:37; 004;  21,97;   50,5;    438;      0;       ;       ;       ;       ;       ;        
04/03/2024; 01:06:37; 004;  22,01;   50,4;    437;      0;       ;       ;       ;       ;       ;        
04/03/2024; 01:07:37; 004;  22,03;   50,4;    438;      0;       ;       ;       ;       ;       ;        
04/03/2024; 01:08:37; 004;  22,05;   50,3;    438;      0;       ;       ;       ;       ;       ;        
04/03/2024; 01:09:37; 004;  22,08;   50,2;    436;      0;       ;       ;       ;       ;       ;        
04/03/2024; 01:10:37; 004;  22,07;   50,2;    435;      0;       ;       ;       ;       ;       ;        
04/03/2024; 01:11:37; 004;  22,08;   50,3;    434;      0;       ;       ;       ;       ;       ;        
04/03/2024; 01:12:37; 004;  22,05;   50,3;    433;      0;       ;       ;       ;       ;       ;        
04/03/2024; 01:13:37; 004;  22,07;   50,3;    435;      0;       ;       ;       ;       ;       ;        
04/03/2024; 01:14:37; 004;  22,05;   50,3;    434;      0;       ;       ;       ;       ;       ;        
04/03/2024; 01:15:37; 004;  22,03;   50,3;    434;      0;       ;       ;       ;       ;       ;        
04/03/2024; 01:16:37; 004;  22,04;   50,3;    435;      0;       ;       ;       ;       ;       ;        
04/03/2024; 01:17:37; 004;  22,03;   50,4;    436;      0;       ;       ;       ;       ;       ;        
04/03/2024; 01:18:37; 004;  22,07;   50,3;    436;      0;       ;       ;       ;       ;       ;        
04/03/2024; 01:19:37; 004;  22,07;   50,2;    436;      0;       ;       ;       ;       ;       ;        
04/03/2024; 01:20:37; 004;  22,10;   50,2;    436;      0;       ;       ;       ;       ;       ;        
04/03/2024; 01:21:37; 004;  22,11;   50,3;    435;      0;       ;       ;       ;       ;       ;        
04/03/2024; 01:22:37; 004;  22,11;   50,2;    435;      0;       ;       ;       ;       ;       ;        
04/03/2024; 01:23:37; 004;  22,14;   50,1;    434;      0;       ;       ;       ;       ;       ;        
04/03/2024; 01:24:37; 004;  22,17;   50,0;    435;      0;       ;       ;       ;       ;       ;        
04/03/2024; 01:25:37; 004;  22,20;   50,0;    433;      0;       ;       ;       ;       ;       ;        
04/03/2024; 01:26:37; 004;  22,18;   50,0;    433;      0;       ;       ;       ;       ;       ;        
04/03/2024; 01:27:37; 004;  22,13;   50,1;    431;      0;       ;       ;       ;       ;       ;        
04/03/2024; 01:28:37; 004;  22,15;   50,1;    432;      0;       ;       ;       ;       ;       ;        
04/03/2024; 01:29:37; 004;  22,15;   50,1;    433;      0;       ;       ;       ;       ;       ;        
04/03/2024; 01:30:37; 004;  22,17;   50,1;    432;      0;       ;       ;       ;       ;       ;        
04/03/2024; 01:31:37; 004;  22,21;   50,0;    433;      0;       ;       ;       ;       ;       ;        
04/03/2024; 01:32:37; 004;  22,27;   49,9;    433;      0;       ;       ;       ;       ;       ;        
04/03/2024; 01:33:37; 004;  22,28;   49,9;    432;      0;       ;       ;       ;       ;       ;        
04/03/2024; 01:34:37; 004;  22,22;   50,0;    432;      0;       ;       ;       ;       ;       ;        
04/03/2024; 01:35:37; 004;  22,22;   49,9;    431;      0;       ;       ;       ;       ;       ;        
04/03/2024; 01:36:37; 004;  22,22;   49,9;    430;      0;       ;       ;       ;       ;       ;        
04/03/2024; 01:37:37; 004;  22,28;   49,9;    429;      0;       ;       ;       ;       ;       ;        
04/03/2024; 01:38:37; 004;  22,27;   49,9;    427;      0;       ;       ;       ;       ;       ;        
04/03/2024; 01:39:37; 004;  22,25;   49,9;    427;      0;       ;       ;       ;       ;       ;        
04/03/2024; 01:40:37; 004;  22,27;   50,0;    426;      0;       ;       ;       ;       ;       ;        
04/03/2024; 01:41:37; 004;  22,25;   49,9;    428;      0;       ;       ;       ;       ;       ;        
04/03/2024; 01:42:37; 004;  22,27;   49,9;    429;      0;       ;       ;       ;       ;       ;        
04/03/2024; 01:43:37; 004;  22,24;   49,9;    428;      0;       ;       ;       ;       ;       ;        
04/03/2024; 01:44:37; 004;  22,21;   50,0;    428;      0;       ;       ;       ;       ;       ;        
04/03/2024; 01:45:37; 004;  22,24;   50,0;    428;      0;       ;       ;       ;       ;       ;        
04/03/2024; 01:46:37; 004;  22,18;   50,0;    429;      0;       ;       ;       ;       ;       ;        
04/03/2024; 01:47:37; 004;  22,20;   50,1;    429;      0;       ;       ;       ;       ;       ;        
04/03/2024; 01:48:37; 004;  22,22;   50,0;    434;      0;       ;       ;       ;       ;       ;        
04/03/2024; 01:49:37; 004;  22,20;   50,1;    432;      0;       ;       ;       ;       ;       ;        
04/03/2024; 01:50:37; 004;  22,21;   50,0;    430;      0;       ;       ;       ;       ;       ;        
04/03/2024; 01:51:37; 004;  22,17;   50,0;    432;      0;       ;       ;       ;       ;       ;        
04/03/2024; 01:52:37; 004;  22,20;   50,0;    433;      0;       ;       ;       ;       ;       ;        
04/03/2024; 01:53:37; 004;  22,17;   50,1;    433;      0;       ;       ;       ;       ;       ;        
04/03/2024; 01:54:37; 004;  22,18;   50,1;    431;      0;       ;       ;       ;       ;       ;        
04/03/2024; 01:55:37; 004;  22,20;   50,0;    430;      0;       ;       ;       ;       ;       ;        
04/03/2024; 01:56:37; 004;  22,14;   50,1;    429;      0;       ;       ;       ;       ;       ;        
04/03/2024; 01:57:37; 004;  22,18;   50,1;    433;      0;       ;       ;       ;       ;       ;        
04/03/2024; 01:58:37; 004;  22,13;   50,2;    433;      0;       ;       ;       ;       ;       ;        
04/03/2024; 01:59:37; 004;  22,13;   50,3;    433;      0;       ;       ;       ;       ;       ;        
04/03/2024; 02:00:37; 004;  22,13;   50,2;    433;      0;       ;       ;       ;       ;       ;        
04/03/2024; 02:01:37; 004;  22,15;   50,1;    433;      0;       ;       ;       ;       ;       ;        
04/03/2024; 02:02:37; 004;  22,15;   50,1;    433;      0;       ;       ;       ;       ;       ;        
04/03/2024; 02:03:37; 004;  22,08;   50,2;    432;      0;       ;       ;       ;       ;       ;        
04/03/2024; 02:04:37; 004;  22,08;   50,4;    433;      0;       ;       ;       ;       ;       ;        
04/03/2024; 02:05:37; 004;  22,07;   50,3;    434;      0;       ;       ;       ;       ;       ;        
04/03/2024; 02:06:37; 004;  22,08;   50,3;    433;      0;       ;       ;       ;       ;       ;        
04/03/2024; 02:07:37; 004;  22,05;   50,4;    434;      0;       ;       ;       ;       ;       ;        
04/03/2024; 02:08:37; 004;  22,04;   50,4;    435;      0;       ;       ;       ;       ;       ;        
04/03/2024; 02:09:37; 004;  22,07;   50,4;    436;      0;       ;       ;       ;       ;       ;        
04/03/2024; 02:10:37; 004;  22,10;   50,3;    436;      0;       ;       ;       ;       ;       ;        
04/03/2024; 02:11:37; 004;  22,14;   50,2;    436;      0;       ;       ;       ;       ;       ;        
04/03/2024; 02:12:37; 004;  22,15;   50,2;    435;      0;       ;       ;       ;       ;       ;        
04/03/2024; 02:13:37; 004;  22,10;   50,2;    434;      0;       ;       ;       ;       ;       ;        
04/03/2024; 02:14:37; 004;  22,11;   50,2;    434;      0;       ;       ;       ;       ;       ;        
04/03/2024; 02:15:37; 004;  22,08;   50,3;    435;      0;       ;       ;       ;       ;       ;        
04/03/2024; 02:16:37; 004;  22,08;   50,3;    436;      0;       ;       ;       ;       ;       ;        
04/03/2024; 02:17:37; 004;  22,08;   50,3;    435;      0;       ;       ;       ;       ;       ;        
04/03/2024; 02:18:37; 004;  22,07;   50,3;    435;      0;       ;       ;       ;       ;       ;        
04/03/2024; 02:19:37; 004;  22,10;   50,3;    436;      0;       ;       ;       ;       ;       ;        
04/03/2024; 02:20:37; 004;  22,15;   50,2;    436;      0;       ;       ;       ;       ;       ;        
04/03/2024; 02:21:37; 004;  22,20;   50,1;    435;      0;       ;       ;       ;       ;       ;        
04/03/2024; 02:22:37; 004;  22,13;   50,2;    434;      0;       ;       ;       ;       ;       ;        
04/03/2024; 02:23:37; 004;  22,15;   50,2;    435;      0;       ;       ;       ;       ;       ;        
04/03/2024; 02:24:37; 004;  22,20;   50,1;    436;      0;       ;       ;       ;       ;       ;        
04/03/2024; 02:25:38; 004;  22,15;   50,1;    435;      0;       ;       ;       ;       ;       ;        
04/03/2024; 02:26:38; 004;  22,18;   50,2;    434;      0;       ;       ;       ;       ;       ;        
04/03/2024; 02:27:38; 004;  22,15;   50,2;    436;      0;       ;       ;       ;       ;       ;        
04/03/2024; 02:28:38; 004;  22,13;   50,2;    436;      0;       ;       ;       ;       ;       ;        
04/03/2024; 02:29:38; 004;  22,11;   50,3;    434;      0;       ;       ;       ;       ;       ;        
04/03/2024; 02:30:38; 004;  22,08;   50,3;    433;      0;       ;       ;       ;       ;       ;        
04/03/2024; 02:31:38; 004;  22,07;   50,4;    435;      0;       ;       ;       ;       ;       ;        
04/03/2024; 02:32:38; 004;  22,14;   50,3;    436;      0;       ;       ;       ;       ;       ;        
04/03/2024; 02:33:38; 004;  22,15;   50,2;    436;      0;       ;       ;       ;       ;       ;        
04/03/2024; 02:34:38; 004;  22,13;   50,3;    436;      0;       ;       ;       ;       ;       ;        
04/03/2024; 02:35:38; 004;  22,14;   50,2;    436;      0;       ;       ;       ;       ;       ;        
04/03/2024; 02:36:38; 004;  22,17;   50,2;    436;      0;       ;       ;       ;       ;       ;        
04/03/2024; 02:37:38; 004;  22,20;   50,1;    436;      0;       ;       ;       ;       ;       ;        
04/03/2024; 02:38:38; 004;  22,18;   50,1;    436;      0;       ;       ;       ;       ;       ;        
04/03/2024; 02:39:38; 004;  22,14;   50,2;    435;      0;       ;       ;       ;       ;       ;        
04/03/2024; 02:40:38; 004;  22,17;   50,2;    436;      0;       ;       ;       ;       ;       ;        
04/03/2024; 02:41:38; 004;  22,20;   50,1;    435;      0;       ;       ;       ;       ;       ;        
04/03/2024; 02:42:38; 004;  22,17;   50,2;    435;      0;       ;       ;       ;       ;       ;        
04/03/2024; 02:43:38; 004;  22,20;   50,2;    436;      0;       ;       ;       ;       ;       ;        
04/03/2024; 02:44:38; 004;  22,20;   50,1;    437;      0;       ;       ;       ;       ;       ;        
04/03/2024; 02:45:38; 004;  22,22;   50,1;    435;      0;       ;       ;       ;       ;       ;        
04/03/2024; 02:46:38; 004;  22,20;   50,1;    436;      0;       ;       ;       ;       ;       ;        
04/03/2024; 02:47:38; 004;  22,24;   50,0;    436;      0;       ;       ;       ;       ;       ;        
04/03/2024; 02:48:38; 004;  22,24;   50,1;    435;      0;       ;       ;       ;       ;       ;        
04/03/2024; 02:49:38; 004;  22,21;   50,1;    435;      0;       ;       ;       ;       ;       ;        
04/03/2024; 02:50:38; 004;  22,17;   50,1;    437;      0;       ;       ;       ;       ;       ;        
04/03/2024; 02:51:38; 004;  22,15;   50,2;    435;      0;       ;       ;       ;       ;       ;        
04/03/2024; 02:52:38; 004;  22,18;   50,1;    432;      0;       ;       ;       ;       ;       ;        
04/03/2024; 02:53:38; 004;  22,21;   50,1;    433;      0;       ;       ;       ;       ;       ;        
04/03/2024; 02:54:38; 004;  22,15;   50,2;    435;      0;       ;       ;       ;       ;       ;        
04/03/2024; 02:55:38; 004;  22,20;   50,1;    436;      0;       ;       ;       ;       ;       ;        
04/03/2024; 02:56:38; 004;  22,14;   50,3;    433;      0;       ;       ;       ;       ;       ;        
04/03/2024; 02:57:38; 004;  22,10;   50,4;    434;      0;       ;       ;       ;       ;       ;        
04/03/2024; 02:58:38; 004;  22,05;   50,4;    436;      0;       ;       ;       ;       ;       ;        
04/03/2024; 02:59:38; 004;  22,08;   50,4;    437;      0;       ;       ;       ;       ;       ;        
04/03/2024; 03:00:38; 004;  22,17;   50,2;    437;      0;       ;       ;       ;       ;       ;        
04/03/2024; 03:01:38; 004;  22,27;   50,0;    436;      0;       ;       ;       ;       ;       ;        
04/03/2024; 03:02:38; 004;  22,24;   50,0;    433;      0;       ;       ;       ;       ;       ;        
04/03/2024; 03:03:38; 004;  22,24;   50,0;    433;      0;       ;       ;       ;       ;       ;        
04/03/2024; 03:04:38; 004;  22,30;   49,9;    434;      0;       ;       ;       ;       ;       ;        
04/03/2024; 03:05:38; 004;  22,31;   49,9;    434;      0;       ;       ;       ;       ;       ;        
04/03/2024; 03:06:38; 004;  22,30;   49,9;    433;      0;       ;       ;       ;       ;       ;        
04/03/2024; 03:07:38; 004;  22,28;   50,0;    432;      0;       ;       ;       ;       ;       ;        
04/03/2024; 03:08:38; 004;  22,34;   49,8;    433;      0;       ;       ;       ;       ;       ;        
04/03/2024; 03:09:38; 004;  22,30;   49,9;    431;      0;       ;       ;       ;       ;       ;        
04/03/2024; 03:10:38; 004;  22,21;   50,1;    430;      0;       ;       ;       ;       ;       ;        
04/03/2024; 03:11:38; 004;  22,20;   50,2;    430;      0;       ;       ;       ;       ;       ;        
04/03/2024; 03:12:38; 004;  22,13;   50,2;    432;      0;       ;       ;       ;       ;       ;        
04/03/2024; 03:13:38; 004;  22,08;   50,3;    432;      0;       ;       ;       ;       ;       ;        
04/03/2024; 03:14:38; 004;  22,11;   50,3;    432;      0;       ;       ;       ;       ;       ;        
04/03/2024; 03:15:38; 004;  22,14;   50,3;    435;      0;       ;       ;       ;       ;       ;        
04/03/2024; 03:16:38; 004;  22,17;   50,3;    435;      0;       ;       ;       ;       ;       ;        
04/03/2024; 03:17:38; 004;  22,18;   50,2;    435;      0;       ;       ;       ;       ;       ;        
04/03/2024; 03:18:38; 004;  22,22;   50,1;    435;      0;       ;       ;       ;       ;       ;        
04/03/2024; 03:19:38; 004;  22,22;   50,1;    435;      0;       ;       ;       ;       ;       ;        
04/03/2024; 03:20:38; 004;  22,24;   50,1;    436;      0;       ;       ;       ;       ;       ;        
04/03/2024; 03:21:38; 004;  22,25;   50,1;    434;      0;       ;       ;       ;       ;       ;        
04/03/2024; 03:22:38; 004;  22,21;   50,1;    433;      0;       ;       ;       ;       ;       ;        
04/03/2024; 03:23:38; 004;  22,22;   50,1;    432;      0;       ;       ;       ;       ;       ;        
04/03/2024; 03:24:38; 004;  22,30;   50,0;    431;      0;       ;       ;       ;       ;       ;        
04/03/2024; 03:25:38; 004;  22,24;   50,0;    432;      0;       ;       ;       ;       ;       ;        
04/03/2024; 03:26:38; 004;  22,32;   50,0;    433;      0;       ;       ;       ;       ;       ;        
04/03/2024; 03:27:38; 004;  22,32;   50,0;    432;      0;       ;       ;       ;       ;       ;        
04/03/2024; 03:28:38; 004;  22,24;   50,1;    433;      0;       ;       ;       ;       ;       ;        
04/03/2024; 03:29:38; 004;  22,13;   50,3;    433;      0;       ;       ;       ;       ;       ;        
04/03/2024; 03:30:38; 004;  22,08;   50,4;    431;      0;       ;       ;       ;       ;       ;        
04/03/2024; 03:31:38; 004;  22,17;   50,3;    433;      0;       ;       ;       ;       ;       ;        
04/03/2024; 03:32:38; 004;  22,18;   50,3;    434;      0;       ;       ;       ;       ;       ;        
04/03/2024; 03:33:38; 004;  22,17;   50,2;    435;      0;       ;       ;       ;       ;       ;        
04/03/2024; 03:34:38; 004;  22,15;   50,3;    435;      0;       ;       ;       ;       ;       ;        
04/03/2024; 03:35:38; 004;  22,14;   50,4;    435;      0;       ;       ;       ;       ;       ;        
04/03/2024; 03:36:38; 004;  22,15;   50,4;    435;      0;       ;       ;       ;       ;       ;        
04/03/2024; 03:37:38; 004;  22,20;   50,2;    433;      0;       ;       ;       ;       ;       ;        
04/03/2024; 03:38:38; 004;  22,20;   50,3;    435;      0;       ;       ;       ;       ;       ;        
04/03/2024; 03:39:38; 004;  22,22;   50,2;    436;      0;       ;       ;       ;       ;       ;        
04/03/2024; 03:40:38; 004;  22,21;   50,2;    435;      0;       ;       ;       ;       ;       ;        
04/03/2024; 03:41:38; 004;  22,22;   50,1;    435;      0;       ;       ;       ;       ;       ;        
04/03/2024; 03:42:38; 004;  22,21;   50,1;    435;      0;       ;       ;       ;       ;       ;        
04/03/2024; 03:43:38; 004;  22,22;   50,1;    433;      0;       ;       ;       ;       ;       ;        
04/03/2024; 03:44:38; 004;  22,28;   50,1;    434;      0;       ;       ;       ;       ;       ;        
04/03/2024; 03:45:38; 004;  22,35;   50,0;    433;      0;       ;       ;       ;       ;       ;        
04/03/2024; 03:46:38; 004;  22,32;   50,1;    431;      0;       ;       ;       ;       ;       ;        
04/03/2024; 03:47:38; 004;  22,32;   50,0;    432;      0;       ;       ;       ;       ;       ;        
04/03/2024; 03:48:38; 004;  22,35;   49,9;    432;      0;       ;       ;       ;       ;       ;        
04/03/2024; 03:49:38; 004;  22,36;   49,9;    431;      0;       ;       ;       ;       ;       ;        
04/03/2024; 03:50:38; 004;  22,34;   49,9;    430;      0;       ;       ;       ;       ;       ;        
04/03/2024; 03:51:38; 004;  22,35;   49,9;    431;      0;       ;       ;       ;       ;       ;        
04/03/2024; 03:52:38; 004;  22,44;   49,7;    431;      0;       ;       ;       ;       ;       ;        
04/03/2024; 03:53:38; 004;  22,42;   49,8;    428;      0;       ;       ;       ;       ;       ;        
04/03/2024; 03:54:39; 004;  22,45;   49,7;    427;      0;       ;       ;       ;       ;       ;        
04/03/2024; 03:55:39; 004;  22,46;   49,7;    427;      0;       ;       ;       ;       ;       ;        
04/03/2024; 03:56:39; 004;  22,41;   49,8;    427;      0;       ;       ;       ;       ;       ;        
04/03/2024; 03:57:39; 004;  22,32;   50,0;    428;      0;       ;       ;       ;       ;       ;        
04/03/2024; 03:58:39; 004;  22,32;   50,0;    427;      0;       ;       ;       ;       ;       ;        
04/03/2024; 03:59:39; 004;  22,35;   50,0;    429;      0;       ;       ;       ;       ;       ;        
04/03/2024; 04:00:39; 004;  22,35;   50,0;    429;      0;       ;       ;       ;       ;       ;        
04/03/2024; 04:01:39; 004;  22,36;   50,0;    427;      0;       ;       ;       ;       ;       ;        
04/03/2024; 04:02:39; 004;  22,35;   50,0;    427;      0;       ;       ;       ;       ;       ;        
04/03/2024; 04:03:39; 004;  22,39;   49,9;    428;      0;       ;       ;       ;       ;       ;        
04/03/2024; 04:04:39; 004;  22,51;   49,7;    430;      0;       ;       ;       ;       ;       ;        
04/03/2024; 04:05:39; 004;  22,46;   49,8;    428;      0;       ;       ;       ;       ;       ;        
04/03/2024; 04:06:39; 004;  22,46;   49,8;    428;      0;       ;       ;       ;       ;       ;        
04/03/2024; 04:07:39; 004;  22,48;   49,7;    427;      0;       ;       ;       ;       ;       ;        
04/03/2024; 04:08:39; 004;  22,46;   49,7;    428;      0;       ;       ;       ;       ;       ;        
04/03/2024; 04:09:39; 004;  22,45;   49,8;    427;      0;       ;       ;       ;       ;       ;        
04/03/2024; 04:10:39; 004;  22,41;   49,9;    425;      0;       ;       ;       ;       ;       ;        
04/03/2024; 04:11:39; 004;  22,44;   49,8;    426;      0;       ;       ;       ;       ;       ;        
04/03/2024; 04:12:39; 004;  22,41;   49,9;    426;      0;       ;       ;       ;       ;       ;        
04/03/2024; 04:13:39; 004;  22,42;   49,9;    427;      0;       ;       ;       ;       ;       ;        
04/03/2024; 04:14:39; 004;  22,35;   49,9;    427;      0;       ;       ;       ;       ;       ;        
04/03/2024; 04:15:39; 004;  22,36;   50,0;    427;      0;       ;       ;       ;       ;       ;        
04/03/2024; 04:16:39; 004;  22,39;   49,9;    427;      0;       ;       ;       ;       ;       ;        
04/03/2024; 04:17:39; 004;  22,38;   50,0;    427;      0;       ;       ;       ;       ;       ;        
04/03/2024; 04:18:39; 004;  22,36;   50,0;    427;      0;       ;       ;       ;       ;       ;        
04/03/2024; 04:19:39; 004;  22,35;   50,0;    428;      0;       ;       ;       ;       ;       ;        
04/03/2024; 04:20:39; 004;  22,34;   50,0;    427;      0;       ;       ;       ;       ;       ;        
04/03/2024; 04:21:39; 004;  22,34;   50,0;    427;      0;       ;       ;       ;       ;       ;        
04/03/2024; 04:22:39; 004;  22,32;   50,0;    429;      0;       ;       ;       ;       ;       ;        
04/03/2024; 04:23:39; 004;  22,28;   50,1;    429;      0;       ;       ;       ;       ;       ;        
04/03/2024; 04:24:39; 004;  22,31;   50,1;    429;      0;       ;       ;       ;       ;       ;        
04/03/2024; 04:25:39; 004;  22,30;   50,2;    429;      0;       ;       ;       ;       ;       ;        
04/03/2024; 04:26:39; 004;  22,30;   50,2;    431;      0;       ;       ;       ;       ;       ;        
04/03/2024; 04:27:39; 004;  22,31;   50,1;    431;      0;       ;       ;       ;       ;       ;        
04/03/2024; 04:28:39; 004;  22,25;   50,2;    429;      0;       ;       ;       ;       ;       ;        
04/03/2024; 04:29:39; 004;  22,25;   50,3;    429;      0;       ;       ;       ;       ;       ;        
04/03/2024; 04:30:39; 004;  22,30;   50,2;    429;      0;       ;       ;       ;       ;       ;        
04/03/2024; 04:31:39; 004;  22,32;   50,1;    429;      0;       ;       ;       ;       ;       ;        
04/03/2024; 04:32:39; 004;  22,35;   50,0;    430;      0;       ;       ;       ;       ;       ;        
04/03/2024; 04:33:39; 004;  22,35;   50,0;    430;      0;       ;       ;       ;       ;       ;        
04/03/2024; 04:34:39; 004;  22,31;   50,1;    428;      0;       ;       ;       ;       ;       ;        
04/03/2024; 04:35:39; 004;  22,24;   50,2;    428;      0;       ;       ;       ;       ;       ;        
04/03/2024; 04:36:39; 004;  22,28;   50,2;    429;      0;       ;       ;       ;       ;       ;        
04/03/2024; 04:37:39; 004;  22,21;   50,3;    429;      0;       ;       ;       ;       ;       ;        
04/03/2024; 04:38:39; 004;  22,25;   50,3;    429;      0;       ;       ;       ;       ;       ;        
04/03/2024; 04:39:39; 004;  22,20;   50,3;    427;      0;       ;       ;       ;       ;       ;        
04/03/2024; 04:40:39; 004;  22,27;   50,3;    429;      0;       ;       ;       ;       ;       ;        
04/03/2024; 04:41:39; 004;  22,22;   50,3;    429;      0;       ;       ;       ;       ;       ;        
04/03/2024; 04:42:39; 004;  22,27;   50,3;    429;      0;       ;       ;       ;       ;       ;        
04/03/2024; 04:43:39; 004;  22,31;   50,2;    429;      0;       ;       ;       ;       ;       ;        
04/03/2024; 04:44:39; 004;  22,35;   50,1;    427;      0;       ;       ;       ;       ;       ;        
04/03/2024; 04:45:39; 004;  22,36;   50,1;    427;      0;       ;       ;       ;       ;       ;        
04/03/2024; 04:46:39; 004;  22,38;   50,0;    430;      0;       ;       ;       ;       ;       ;        
04/03/2024; 04:47:39; 004;  22,38;   50,0;    429;      0;       ;       ;       ;       ;       ;        
04/03/2024; 04:48:39; 004;  22,38;   50,0;    428;      0;       ;       ;       ;       ;       ;        
04/03/2024; 04:49:39; 004;  22,41;   50,0;    427;      0;       ;       ;       ;       ;       ;        
04/03/2024; 04:50:39; 004;  22,39;   50,0;    426;      0;       ;       ;       ;       ;       ;        
04/03/2024; 04:51:39; 004;  22,41;   50,0;    427;      0;       ;       ;       ;       ;       ;        
04/03/2024; 04:52:39; 004;  22,39;   50,0;    426;      0;       ;       ;       ;       ;       ;        
04/03/2024; 04:53:39; 004;  22,44;   49,9;    427;      0;       ;       ;       ;       ;       ;        
04/03/2024; 04:54:39; 004;  22,46;   49,8;    428;      0;       ;       ;       ;       ;       ;        
04/03/2024; 04:55:39; 004;  22,52;   49,7;    427;      0;       ;       ;       ;       ;       ;        
04/03/2024; 04:56:39; 004;  22,59;   49,6;    426;      0;       ;       ;       ;       ;       ;        
04/03/2024; 04:57:39; 004;  22,52;   49,8;    424;      0;       ;       ;       ;       ;       ;        
04/03/2024; 04:58:39; 004;  22,48;   49,9;    422;      0;       ;       ;       ;       ;       ;        
04/03/2024; 04:59:39; 004;  22,45;   49,9;    425;      0;       ;       ;       ;       ;       ;        
04/03/2024; 05:00:39; 004;  22,48;   49,9;    424;      0;       ;       ;       ;       ;       ;        
04/03/2024; 05:01:39; 004;  22,48;   49,9;    423;      0;       ;       ;       ;       ;       ;        
04/03/2024; 05:02:39; 004;  22,42;   50,0;    424;      0;       ;       ;       ;       ;       ;        
04/03/2024; 05:03:39; 004;  22,38;   50,1;    426;      0;       ;       ;       ;       ;       ;        
04/03/2024; 05:04:39; 004;  22,36;   50,1;    426;      0;       ;       ;       ;       ;       ;        
04/03/2024; 05:05:39; 004;  22,42;   50,1;    426;      0;       ;       ;       ;       ;       ;        
04/03/2024; 05:06:39; 004;  22,38;   50,0;    426;      0;       ;       ;       ;       ;       ;        
04/03/2024; 05:07:39; 004;  22,35;   50,1;    428;      0;       ;       ;       ;       ;       ;        
04/03/2024; 05:08:39; 004;  22,34;   50,2;    427;      0;       ;       ;       ;       ;       ;        
04/03/2024; 05:09:39; 004;  22,30;   50,2;    426;      0;       ;       ;       ;       ;       ;        
04/03/2024; 05:10:39; 004;  22,34;   50,2;    425;      0;       ;       ;       ;       ;       ;        
04/03/2024; 05:11:39; 004;  22,39;   50,1;    426;      0;       ;       ;       ;       ;       ;        
04/03/2024; 05:12:39; 004;  22,38;   50,1;    426;      0;       ;       ;       ;       ;       ;        
04/03/2024; 05:13:39; 004;  22,35;   50,1;    426;      0;       ;       ;       ;       ;       ;        
04/03/2024; 05:14:39; 004;  22,39;   50,1;    426;      0;       ;       ;       ;       ;       ;        
04/03/2024; 05:15:39; 004;  22,38;   50,1;    426;      0;       ;       ;       ;       ;       ;        
04/03/2024; 05:16:39; 004;  22,41;   50,1;    426;      0;       ;       ;       ;       ;       ;        
04/03/2024; 05:17:39; 004;  22,44;   50,0;    426;      0;       ;       ;       ;       ;       ;        
04/03/2024; 05:18:39; 004;  22,36;   50,1;    426;      0;       ;       ;       ;       ;       ;        
04/03/2024; 05:19:39; 004;  22,36;   50,1;    427;      0;       ;       ;       ;       ;       ;        
04/03/2024; 05:20:39; 004;  22,44;   50,0;    429;      0;       ;       ;       ;       ;       ;        
04/03/2024; 05:21:39; 004;  22,52;   49,8;    430;      0;       ;       ;       ;       ;       ;        
04/03/2024; 05:22:39; 004;  22,50;   49,8;    427;      0;       ;       ;       ;       ;       ;        
04/03/2024; 05:23:39; 004;  22,46;   49,9;    423;      0;       ;       ;       ;       ;       ;        
04/03/2024; 05:24:40; 004;  22,48;   49,9;    423;      0;       ;       ;       ;       ;       ;        
04/03/2024; 05:25:40; 004;  22,41;   50,0;    423;      0;       ;       ;       ;       ;       ;        
04/03/2024; 05:26:40; 004;  22,39;   50,0;    424;      0;       ;       ;       ;       ;       ;        
04/03/2024; 05:27:40; 004;  22,35;   50,1;    423;      0;       ;       ;       ;       ;       ;        
04/03/2024; 05:28:40; 004;  22,44;   50,0;    425;      0;       ;       ;       ;       ;       ;        
04/03/2024; 05:29:40; 004;  22,45;   50,0;    425;      0;       ;       ;       ;       ;       ;        
04/03/2024; 05:30:40; 004;  22,44;   49,9;    425;      0;       ;       ;       ;       ;       ;        
04/03/2024; 05:31:40; 004;  22,48;   49,9;    424;      0;       ;       ;       ;       ;       ;        
04/03/2024; 05:32:40; 004;  22,50;   49,8;    423;      0;       ;       ;       ;       ;       ;        
04/03/2024; 05:33:40; 004;  22,48;   49,9;    423;      0;       ;       ;       ;       ;       ;        
04/03/2024; 05:34:40; 004;  22,44;   50,0;    422;      0;       ;       ;       ;       ;       ;        
04/03/2024; 05:35:40; 004;  22,46;   49,9;    423;      0;       ;       ;       ;       ;       ;        
04/03/2024; 05:36:40; 004;  22,48;   49,9;    423;      0;       ;       ;       ;       ;       ;        
04/03/2024; 05:37:40; 004;  22,50;   49,9;    423;      0;       ;       ;       ;       ;       ;        
04/03/2024; 05:38:40; 004;  22,51;   49,9;    424;      0;       ;       ;       ;       ;       ;        
04/03/2024; 05:39:40; 004;  22,51;   49,9;    423;      0;       ;       ;       ;       ;       ;        
04/03/2024; 05:40:40; 004;  22,44;   50,0;    424;      0;       ;       ;       ;       ;       ;        
04/03/2024; 05:41:40; 004;  22,44;   50,0;    424;      0;       ;       ;       ;       ;       ;        
04/03/2024; 05:42:40; 004;  22,39;   50,0;    424;      0;       ;       ;       ;       ;       ;        
04/03/2024; 05:43:40; 004;  22,44;   50,0;    423;      0;       ;       ;       ;       ;       ;        
04/03/2024; 05:44:40; 004;  22,44;   50,1;    424;      0;       ;       ;       ;       ;       ;        
04/03/2024; 05:45:40; 004;  22,51;   49,9;    424;      0;       ;       ;       ;       ;       ;        
04/03/2024; 05:46:40; 004;  22,57;   49,8;    424;      0;       ;       ;       ;       ;       ;        
04/03/2024; 05:47:40; 004;  22,58;   49,7;    423;      0;       ;       ;       ;       ;       ;        
04/03/2024; 05:48:40; 004;  22,59;   49,7;    421;      0;       ;       ;       ;       ;       ;        
04/03/2024; 05:49:40; 004;  22,55;   49,7;    421;      0;       ;       ;       ;       ;       ;        
04/03/2024; 05:50:40; 004;  22,55;   49,8;    420;      0;       ;       ;       ;       ;       ;        
04/03/2024; 05:51:40; 004;  22,63;   49,6;    421;      0;       ;       ;       ;       ;       ;        
04/03/2024; 05:52:40; 004;  22,65;   49,6;    419;      0;       ;       ;       ;       ;       ;        
04/03/2024; 05:53:40; 004;  22,66;   49,6;    420;      0;       ;       ;       ;       ;       ;        
04/03/2024; 05:54:40; 004;  22,62;   49,6;    419;      0;       ;       ;       ;       ;       ;        
04/03/2024; 05:55:40; 004;  22,62;   49,7;    419;      0;       ;       ;       ;       ;       ;        
04/03/2024; 05:56:40; 004;  22,63;   49,6;    420;      0;       ;       ;       ;       ;       ;        
04/03/2024; 05:57:40; 004;  22,68;   49,5;    419;      0;       ;       ;       ;       ;       ;        
04/03/2024; 05:58:40; 004;  22,59;   49,6;    418;      0;       ;       ;       ;       ;       ;        
04/03/2024; 05:59:40; 004;  22,59;   49,7;    419;      0;       ;       ;       ;       ;       ;        
04/03/2024; 06:00:40; 004;  22,62;   49,7;    420;      0;       ;       ;       ;       ;       ;        
04/03/2024; 06:01:40; 004;  22,59;   49,7;    421;      0;       ;       ;       ;       ;       ;        
04/03/2024; 06:02:40; 004;  22,59;   49,8;    420;      0;       ;       ;       ;       ;       ;        
04/03/2024; 06:03:40; 004;  22,58;   49,7;    418;      0;       ;       ;       ;       ;       ;        
04/03/2024; 06:04:40; 004;  22,48;   50,0;    418;      0;       ;       ;       ;       ;       ;        
04/03/2024; 06:05:40; 004;  22,46;   50,0;    422;      0;       ;       ;       ;       ;       ;        
04/03/2024; 06:06:40; 004;  22,52;   50,0;    422;      0;       ;       ;       ;       ;       ;        
04/03/2024; 06:07:40; 004;  22,50;   50,0;    421;      0;       ;       ;       ;       ;       ;        
04/03/2024; 06:08:40; 004;  22,54;   49,8;    420;      0;       ;       ;       ;       ;       ;        
04/03/2024; 06:09:40; 004;  22,57;   49,8;    422;      0;       ;       ;       ;       ;       ;        
04/03/2024; 06:10:40; 004;  22,59;   49,8;    421;      0;       ;       ;       ;       ;       ;        
04/03/2024; 06:11:40; 004;  22,62;   49,7;    421;      0;       ;       ;       ;       ;       ;        
04/03/2024; 06:12:40; 004;  22,62;   49,6;    421;      0;       ;       ;       ;       ;       ;        
04/03/2024; 06:13:40; 004;  22,54;   49,8;    419;      0;       ;       ;       ;       ;       ;        
04/03/2024; 06:14:40; 004;  22,52;   49,9;    420;      0;       ;       ;       ;       ;       ;        
04/03/2024; 06:15:40; 004;  22,54;   49,9;    420;      0;       ;       ;       ;       ;       ;        
04/03/2024; 06:16:40; 004;  22,54;   49,9;    421;      0;       ;       ;       ;       ;       ;        
04/03/2024; 06:17:40; 004;  22,54;   49,9;    420;      0;       ;       ;       ;       ;       ;        
04/03/2024; 06:18:40; 004;  22,52;   49,9;    419;      0;       ;       ;       ;       ;       ;        
04/03/2024; 06:19:40; 004;  22,58;   49,9;    420;      0;       ;       ;       ;       ;       ;        
04/03/2024; 06:20:40; 004;  22,58;   49,7;    420;      0;       ;       ;       ;       ;       ;        
04/03/2024; 06:21:40; 004;  22,63;   49,8;    418;      0;       ;       ;       ;       ;       ;        
04/03/2024; 06:22:40; 004;  22,66;   49,6;    421;      0;       ;       ;       ;       ;       ;        
04/03/2024; 06:23:40; 004;  22,66;   49,7;    418;      0;       ;       ;       ;       ;       ;        
04/03/2024; 06:24:40; 004;  22,62;   49,7;    416;      0;       ;       ;       ;       ;       ;        
04/03/2024; 06:25:40; 004;  22,61;   49,8;    418;      0;       ;       ;       ;       ;       ;        
04/03/2024; 06:26:40; 004;  22,61;   49,8;    419;      0;       ;       ;       ;       ;       ;        
04/03/2024; 06:27:40; 004;  22,59;   49,9;    419;      0;       ;       ;       ;       ;       ;        
04/03/2024; 06:28:40; 004;  22,63;   49,8;    419;      0;       ;       ;       ;       ;       ;        
04/03/2024; 06:29:40; 004;  22,62;   49,7;    419;      0;       ;       ;       ;       ;       ;        
04/03/2024; 06:30:40; 004;  22,68;   49,7;    420;      0;       ;       ;       ;       ;       ;        
04/03/2024; 06:31:40; 004;  22,72;   49,5;    418;      0;       ;       ;       ;       ;       ;        
04/03/2024; 06:32:40; 004;  22,75;   49,5;    417;      0;       ;       ;       ;       ;       ;        
04/03/2024; 06:33:40; 004;  22,69;   49,6;    417;      0;       ;       ;       ;       ;       ;        
04/03/2024; 06:34:40; 004;  22,69;   49,6;    417;      0;       ;       ;       ;       ;       ;        
04/03/2024; 06:35:40; 004;  22,66;   49,6;    417;      0;       ;       ;       ;       ;       ;        
04/03/2024; 06:36:40; 004;  22,57;   49,9;    416;      0;       ;       ;       ;       ;       ;        
04/03/2024; 06:37:40; 004;  22,57;   50,0;    416;      0;       ;       ;       ;       ;       ;        
04/03/2024; 06:38:40; 004;  22,57;   49,9;    418;      0;       ;       ;       ;       ;       ;        
04/03/2024; 06:39:40; 004;  22,55;   49,9;    418;      0;       ;       ;       ;       ;       ;        
04/03/2024; 06:40:40; 004;  22,52;   50,0;    418;      0;       ;       ;       ;       ;       ;        
04/03/2024; 06:41:40; 004;  22,57;   50,0;    418;      0;       ;       ;       ;       ;       ;        
04/03/2024; 06:42:40; 004;  22,61;   49,9;    418;      0;       ;       ;       ;       ;       ;        
04/03/2024; 06:43:40; 004;  22,61;   49,9;    417;      0;       ;       ;       ;       ;       ;        
04/03/2024; 06:44:40; 004;  22,61;   49,9;    418;      0;       ;       ;       ;       ;       ;        
04/03/2024; 06:45:40; 004;  22,61;   49,9;    417;      0;       ;       ;       ;       ;       ;        
04/03/2024; 06:46:40; 004;  22,66;   49,8;    417;      0;       ;       ;       ;       ;       ;        
04/03/2024; 06:47:40; 004;  22,65;   49,8;    416;      0;       ;       ;       ;       ;       ;        
04/03/2024; 06:48:40; 004;  22,66;   49,9;    417;      0;       ;       ;       ;       ;       ;        
04/03/2024; 06:49:40; 004;  22,62;   49,9;    417;      0;       ;       ;       ;       ;       ;        
04/03/2024; 06:50:40; 004;  22,68;   49,8;    416;      0;       ;       ;       ;       ;       ;        
04/03/2024; 06:51:40; 004;  22,72;   49,6;    416;      0;       ;       ;       ;       ;       ;        
04/03/2024; 06:52:40; 004;  22,72;   49,7;    417;      0;       ;       ;       ;       ;       ;        
04/03/2024; 06:53:41; 004;  22,78;   49,6;    417;      0;       ;       ;       ;       ;       ;        
04/03/2024; 06:54:41; 004;  22,75;   49,6;    415;      0;       ;       ;       ;       ;       ;        
04/03/2024; 06:55:41; 004;  22,72;   49,7;    416;      0;       ;       ;       ;       ;       ;        
04/03/2024; 06:56:41; 004;  22,62;   49,9;    415;      0;       ;       ;       ;       ;       ;        
04/03/2024; 06:57:41; 004;  22,57;   50,0;    416;      0;       ;       ;       ;       ;       ;        
04/03/2024; 06:58:41; 004;  22,62;   50,0;    416;      0;       ;       ;       ;       ;       ;        
04/03/2024; 06:59:41; 004;  22,63;   49,9;    416;      0;       ;       ;       ;       ;       ;        
04/03/2024; 07:00:41; 004;  22,62;   49,9;    416;      0;       ;       ;       ;       ;       ;        
04/03/2024; 07:01:41; 004;  22,61;   50,0;    416;      0;       ;       ;       ;       ;       ;        
04/03/2024; 07:02:41; 004;  22,66;   49,9;    415;      0;       ;       ;       ;       ;       ;        
04/03/2024; 07:03:41; 004;  22,69;   49,8;    417;      0;       ;       ;       ;       ;       ;        
04/03/2024; 07:04:41; 004;  22,72;   49,8;    416;      0;       ;       ;       ;       ;       ;        
04/03/2024; 07:05:41; 004;  22,73;   49,7;    417;      0;       ;       ;       ;       ;       ;        
04/03/2024; 07:06:41; 004;  22,68;   49,8;    417;      0;       ;       ;       ;       ;       ;        
04/03/2024; 07:07:41; 004;  22,79;   49,7;    418;      0;       ;       ;       ;       ;       ;        
04/03/2024; 07:08:41; 004;  22,72;   49,8;    415;      0;       ;       ;       ;       ;       ;        
04/03/2024; 07:09:41; 004;  22,72;   49,8;    415;      0;       ;       ;       ;       ;       ;        
04/03/2024; 07:10:41; 004;  22,71;   49,8;    416;      0;       ;       ;       ;       ;       ;        
04/03/2024; 07:11:41; 004;  22,63;   50,0;    416;      0;       ;       ;       ;       ;       ;        
04/03/2024; 07:12:41; 004;  22,66;   50,0;    416;      0;       ;       ;       ;       ;       ;        
04/03/2024; 07:13:41; 004;  22,61;   50,1;    416;      0;       ;       ;       ;       ;       ;        
04/03/2024; 07:14:41; 004;  22,61;   50,1;    417;      0;       ;       ;       ;       ;       ;        
04/03/2024; 07:15:41; 004;  22,52;   50,2;    416;      0;       ;       ;       ;       ;       ;        
04/03/2024; 07:16:41; 004;  22,50;   50,4;    422;      0;       ;       ;       ;       ;       ;        
04/03/2024; 07:17:41; 004;  22,50;   50,3;    424;      0;       ;       ;       ;       ;       ;        
04/03/2024; 07:18:41; 004;  22,51;   50,4;    424;      0;       ;       ;       ;       ;       ;        
04/03/2024; 07:19:41; 004;  22,59;   50,2;    425;      0;       ;       ;       ;       ;       ;        
04/03/2024; 07:20:41; 004;  22,55;   50,2;    424;      0;       ;       ;       ;       ;       ;        
04/03/2024; 07:21:41; 004;  22,55;   50,2;    427;      0;       ;       ;       ;       ;       ;        
04/03/2024; 07:22:41; 004;  22,52;   50,3;    425;      0;       ;       ;       ;       ;       ;        
04/03/2024; 07:23:41; 004;  22,45;   50,5;    424;      0;       ;       ;       ;       ;       ;        
04/03/2024; 07:24:41; 004;  22,39;   50,6;    424;      0;       ;       ;       ;       ;       ;        
04/03/2024; 07:25:41; 004;  22,38;   50,7;    425;      0;       ;       ;       ;       ;       ;        
04/03/2024; 07:26:41; 004;  22,32;   50,7;    425;      0;       ;       ;       ;       ;       ;        
04/03/2024; 07:27:41; 004;  22,32;   50,8;    425;      0;       ;       ;       ;       ;       ;        
04/03/2024; 07:28:41; 004;  22,28;   50,8;    429;      0;       ;       ;       ;       ;       ;        
04/03/2024; 07:29:41; 004;  22,27;   50,9;    431;      0;       ;       ;       ;       ;       ;        
04/03/2024; 07:30:41; 004;  22,28;   51,0;    430;      0;       ;       ;       ;       ;       ;        
04/03/2024; 07:31:41; 004;  22,28;   51,0;    430;      0;       ;       ;       ;       ;       ;        
04/03/2024; 07:32:41; 004;  22,27;   51,0;    429;      0;       ;       ;       ;       ;       ;        
04/03/2024; 07:33:41; 004;  22,25;   51,0;    428;      0;       ;       ;       ;       ;       ;        
04/03/2024; 07:34:41; 004;  22,32;   50,9;    430;      0;       ;       ;       ;       ;       ;        
04/03/2024; 07:35:41; 004;  22,27;   50,9;    429;      0;       ;       ;       ;       ;       ;        
04/03/2024; 07:36:41; 004;  22,31;   50,9;    430;      0;       ;       ;       ;       ;       ;        
04/03/2024; 07:37:41; 004;  22,30;   51,0;    430;      0;       ;       ;       ;       ;       ;        
04/03/2024; 07:38:41; 004;  22,24;   51,0;    431;      0;       ;       ;       ;       ;       ;        
04/03/2024; 07:39:41; 004;  22,21;   51,1;    432;      0;       ;       ;       ;       ;       ;        
04/03/2024; 07:40:41; 004;  22,20;   51,2;    437;      0;       ;       ;       ;       ;       ;        
04/03/2024; 07:41:41; 004;  22,21;   51,2;    440;      0;       ;       ;       ;       ;       ;        
04/03/2024; 07:42:41; 004;  22,13;   51,3;    443;      0;       ;       ;       ;       ;       ;        
04/03/2024; 07:43:41; 004;  22,07;   51,4;    441;      0;       ;       ;       ;       ;       ;        
04/03/2024; 07:44:41; 004;  22,04;   51,6;    436;      0;       ;       ;       ;       ;       ;        
04/03/2024; 07:45:41; 004;  22,04;   51,6;    432;      0;       ;       ;       ;       ;       ;        
04/03/2024; 07:46:41; 004;  22,05;   51,5;    433;      0;       ;       ;       ;       ;       ;        
04/03/2024; 07:47:41; 004;  22,10;   51,5;    434;      0;       ;       ;       ;       ;       ;        
04/03/2024; 07:48:41; 004;  22,03;   51,6;    435;      0;       ;       ;       ;       ;       ;        
04/03/2024; 07:49:41; 004;  22,01;   51,7;    433;      0;       ;       ;       ;       ;       ;        
04/03/2024; 07:50:41; 004;  21,99;   51,7;    431;      0;       ;       ;       ;       ;       ;        
04/03/2024; 07:51:41; 004;  22,03;   51,7;    430;      0;       ;       ;       ;       ;       ;        
04/03/2024; 07:52:41; 004;  22,03;   51,6;    430;      0;       ;       ;       ;       ;       ;        
04/03/2024; 07:53:41; 004;  22,11;   51,5;    432;      0;       ;       ;       ;       ;       ;        
04/03/2024; 07:54:41; 004;  22,08;   51,5;    433;      0;       ;       ;       ;       ;       ;        
04/03/2024; 07:55:41; 004;  22,11;   51,5;    433;      0;       ;       ;       ;       ;       ;        
04/03/2024; 07:56:41; 004;  22,11;   51,5;    432;      0;       ;       ;       ;       ;       ;        
04/03/2024; 07:57:41; 004;  22,04;   51,6;    432;      0;       ;       ;       ;       ;       ;        
04/03/2024; 07:58:41; 004;  22,07;   51,6;    431;      0;       ;       ;       ;       ;       ;        
04/03/2024; 07:59:41; 004;  22,08;   51,5;    433;      0;       ;       ;       ;       ;       ;        
04/03/2024; 08:00:41; 004;  22,07;   51,6;    433;      0;       ;       ;       ;       ;       ;        
04/03/2024; 08:01:41; 004;  22,03;   51,6;    434;      0;       ;       ;       ;       ;       ;        
04/03/2024; 08:02:41; 004;  22,08;   51,5;    436;      0;       ;       ;       ;       ;       ;        
04/03/2024; 08:03:41; 004;  22,10;   51,4;    435;      0;       ;       ;       ;       ;       ;        
04/03/2024; 08:04:41; 004;  22,07;   51,6;    434;      0;       ;       ;       ;       ;       ;        
04/03/2024; 08:05:41; 004;  22,05;   51,6;    434;      0;       ;       ;       ;       ;       ;        
04/03/2024; 08:06:41; 004;  22,01;   51,6;    434;      0;       ;       ;       ;       ;       ;        
04/03/2024; 08:07:41; 004;  22,03;   51,7;    433;      0;       ;       ;       ;       ;       ;        
04/03/2024; 08:08:41; 004;  22,07;   51,6;    433;      0;       ;       ;       ;       ;       ;        
04/03/2024; 08:09:41; 004;  22,07;   51,5;    434;      0;       ;       ;       ;       ;       ;        
04/03/2024; 08:10:41; 004;  22,10;   51,5;    434;      0;       ;       ;       ;       ;       ;        
04/03/2024; 08:11:41; 004;  22,03;   51,6;    433;      0;       ;       ;       ;       ;       ;        
04/03/2024; 08:12:41; 004;  22,00;   51,7;    433;      0;       ;       ;       ;       ;       ;        
04/03/2024; 08:13:41; 004;  21,96;   51,8;    432;      0;       ;       ;       ;       ;       ;        
04/03/2024; 08:14:41; 004;  21,99;   51,8;    431;      0;       ;       ;       ;       ;       ;        
04/03/2024; 08:15:41; 004;  21,97;   51,8;    431;      0;       ;       ;       ;       ;       ;        
04/03/2024; 08:16:41; 004;  21,97;   51,8;    432;      0;       ;       ;       ;       ;       ;        
04/03/2024; 08:17:41; 004;  22,00;   51,8;    431;      0;       ;       ;       ;       ;       ;        
04/03/2024; 08:18:41; 004;  22,00;   51,8;    431;      0;       ;       ;       ;       ;       ;        
04/03/2024; 08:19:41; 004;  21,96;   51,9;    431;      0;       ;       ;       ;       ;       ;        
04/03/2024; 08:20:41; 004;  21,91;   52,0;    430;      0;       ;       ;       ;       ;       ;        
04/03/2024; 08:21:41; 004;  21,85;   52,1;    430;      0;       ;       ;       ;       ;       ;        
04/03/2024; 08:22:41; 004;  21,83;   52,2;    430;      0;       ;       ;       ;       ;       ;        
04/03/2024; 08:23:41; 004;  21,80;   52,3;    427;      0;       ;       ;       ;       ;       ;        
04/03/2024; 08:24:41; 004;  21,72;   52,4;    423;      0;       ;       ;       ;       ;       ;        
04/03/2024; 08:25:42; 004;  21,66;   52,5;    423;      0;       ;       ;       ;       ;       ;        
04/03/2024; 08:26:42; 004;  21,59;   52,8;    420;      0;       ;       ;       ;       ;       ;        
04/03/2024; 08:27:42; 004;  21,63;   52,7;    419;      0;       ;       ;       ;       ;       ;        
04/03/2024; 08:28:42; 004;  21,60;   52,8;    418;      0;       ;       ;       ;       ;       ;        
04/03/2024; 08:29:42; 004;  21,49;   53,0;    418;      0;       ;       ;       ;       ;       ;        
04/03/2024; 08:30:42; 004;  21,53;   53,0;    417;      0;       ;       ;       ;       ;       ;        
04/03/2024; 08:31:42; 004;  21,50;   53,0;    417;      0;       ;       ;       ;       ;       ;        
04/03/2024; 08:32:42; 004;  21,57;   53,0;    417;      0;       ;       ;       ;       ;       ;        
04/03/2024; 08:33:42; 004;  21,56;   53,0;    420;      0;       ;       ;       ;       ;       ;        
04/03/2024; 08:34:42; 004;  21,53;   53,0;    421;      0;       ;       ;       ;       ;       ;        
04/03/2024; 08:35:42; 004;  21,53;   53,1;    423;      0;       ;       ;       ;       ;       ;        
04/03/2024; 08:36:42; 004;  21,59;   53,0;    424;      0;       ;       ;       ;       ;       ;        
04/03/2024; 08:37:42; 004;  21,59;   52,9;    426;      0;       ;       ;       ;       ;       ;        
04/03/2024; 08:38:42; 004;  21,54;   53,0;    425;      0;       ;       ;       ;       ;       ;        
04/03/2024; 08:39:42; 004;  21,52;   53,2;    425;      0;       ;       ;       ;       ;       ;        
04/03/2024; 08:40:42; 004;  21,48;   53,2;    427;      0;       ;       ;       ;       ;       ;        
04/03/2024; 08:41:42; 004;  21,46;   53,4;    426;      0;       ;       ;       ;       ;       ;        
04/03/2024; 08:42:42; 004;  21,35;   53,5;    426;      0;       ;       ;       ;       ;       ;        
04/03/2024; 08:43:42; 004;  21,36;   53,6;    426;      0;       ;       ;       ;       ;       ;        
04/03/2024; 08:44:42; 004;  21,33;   53,6;    426;      0;       ;       ;       ;       ;       ;        
04/03/2024; 08:45:42; 004;  21,26;   53,8;    425;      0;       ;       ;       ;       ;       ;        
04/03/2024; 08:46:42; 004;  21,33;   53,7;    423;      0;       ;       ;       ;       ;       ;        
04/03/2024; 08:47:42; 004;  21,18;   54,0;    421;      0;       ;       ;       ;       ;       ;        
04/03/2024; 08:48:42; 004;  20,98;   54,6;    430;      0;       ;       ;       ;       ;       ;        
04/03/2024; 08:49:42; 004;  20,84;   55,1;    466;      0;       ;       ;       ;       ;       ;        
04/03/2024; 08:50:42; 004;  20,73;   55,6;    510;      0;       ;       ;       ;       ;       ;        
04/03/2024; 08:51:42; 004;  20,68;   56,0;    555;      0;       ;       ;       ;       ;       ;        
04/03/2024; 08:52:42; 004;  20,48;   56,7;    598;      0;       ;       ;       ;       ;       ;        
04/03/2024; 08:53:42; 004;  20,33;   57,2;    591;      0;       ;       ;       ;       ;       ;        
04/03/2024; 08:54:42; 004;  20,37;   57,3;    590;      0;       ;       ;       ;       ;       ;        
04/03/2024; 08:55:42; 004;  20,12;   58,0;    602;      0;       ;       ;       ;       ;       ;        
04/03/2024; 08:56:42; 004;  20,00;   58,5;    607;      0;       ;       ;       ;       ;       ;        
04/03/2024; 08:57:42; 004;  20,02;   58,5;    622;      0;       ;       ;       ;       ;       ;        
04/03/2024; 08:58:42; 004;  19,99;   58,9;    638;      0;       ;       ;       ;       ;       ;        
04/03/2024; 08:59:42; 004;  20,03;   59,0;    658;      0;       ;       ;       ;       ;       ;        
04/03/2024; 09:00:42; 004;  19,93;   59,3;    703;      0;       ;       ;       ;       ;       ;        
04/03/2024; 09:01:42; 004;  19,98;   59,4;    704;      0;       ;       ;       ;       ;       ;        
04/03/2024; 09:02:42; 004;  19,83;   59,8;    714;      0;       ;       ;       ;       ;       ;        
04/03/2024; 09:03:42; 004;  19,72;   60,1;    717;      0;       ;       ;       ;       ;       ;        
04/03/2024; 09:04:42; 004;  19,64;   60,5;    707;     10;       ;       ;       ;       ;       ;        
04/03/2024; 09:05:42; 004;  19,59;   60,8;    706;      0;       ;       ;       ;       ;       ;        
04/03/2024; 09:06:42; 004;  19,54;   61,0;    720;     10;       ;       ;       ;       ;       ;        
04/03/2024; 09:07:42; 004;  19,48;   61,3;    726;     10;       ;       ;       ;       ;       ;        
04/03/2024; 09:08:42; 004;  19,44;   61,5;    739;     10;       ;       ;       ;       ;       ;        
04/03/2024; 09:09:42; 004;  19,42;   61,5;    742;     10;       ;       ;       ;       ;       ;        
04/03/2024; 09:10:42; 004;  19,38;   61,8;    749;     10;       ;       ;       ;       ;       ;        
04/03/2024; 09:11:42; 004;  19,36;   62,0;    767;      0;       ;       ;       ;       ;       ;        
04/03/2024; 09:12:42; 004;  19,33;   62,1;    765;      0;       ;       ;       ;       ;       ;        
04/03/2024; 09:13:42; 004;  19,40;   62,0;    784;      0;       ;       ;       ;       ;       ;        
04/03/2024; 09:14:42; 004;  19,40;   62,1;    824;      0;       ;       ;       ;       ;       ;        
04/03/2024; 09:15:00;    ;       ;       ;       ;       ;       ;       ;       ;       ;       ;       
04/03/2024; 09:16:42; 004;  19,44;   62,2;    875;      0;       ;       ;       ;       ;       ;        
04/03/2024; 09:17:42; 004;  19,38;   62,6;    923;      0;       ;       ;       ;       ;       ;        
04/03/2024; 09:18:42; 004;  19,34;   62,8;    927;      0;       ;       ;       ;       ;       ;        
04/03/2024; 09:19:42; 004;  19,24;   63,1;    917;      0;       ;       ;       ;       ;       ;        
04/03/2024; 09:20:42; 004;  19,26;   63,3;    924;      0;       ;       ;       ;       ;       ;        
04/03/2024; 09:21:42; 004;  19,26;   63,4;    946;      0;       ;       ;       ;       ;       ;        
04/03/2024; 09:22:42; 004;  19,40;   63,1;    971;      0;       ;       ;       ;       ;       ;        
04/03/2024; 09:23:42; 004;  19,30;   63,5;    982;      0;       ;       ;       ;       ;       ;        
04/03/2024; 09:24:42; 004;  19,28;   63,8;   1004;      0;       ;       ;       ;       ;       ;        
04/03/2024; 09:25:42; 004;  19,30;   63,8;   1033;      0;       ;       ;       ;       ;       ;        
04/03/2024; 09:26:42; 004;  19,27;   64,0;   1072;      0;       ;       ;       ;       ;       ;        
04/03/2024; 09:27:42; 004;  19,27;   64,1;   1084;      0;       ;       ;       ;       ;       ;        
04/03/2024; 09:28:00;    ;       ;       ;       ;       ;       ;       ;       ;       ;       ;       
04/03/2024; 09:29:42; 004;  19,20;   64,4;   1106;      0;       ;       ;       ;       ;       ;        
04/03/2024; 09:30:00;    ;       ;       ;       ;       ;       ;       ;       ;       ;       ;       
04/03/2024; 09:31:43; 004;  19,23;   64,6;   1155;     10;       ;       ;       ;       ;       ;        
04/03/2024; 09:32:42; 004;  19,21;   64,8;   1177;     20;       ;       ;       ;       ;       ;        
04/03/2024; 09:33:00;    ;       ;       ;       ;       ;       ;       ;       ;       ;       ;       
04/03/2024; 09:34:42; 004;  19,26;   64,8;   1223;     40;       ;       ;       ;       ;       ;        
04/03/2024; 09:35:00;    ;       ;       ;       ;       ;       ;       ;       ;       ;       ;       
04/03/2024; 09:36:00;    ;       ;       ;       ;       ;       ;       ;       ;       ;       ;       
04/03/2024; 09:37:00;    ;       ;       ;       ;       ;       ;       ;       ;       ;       ;       
04/03/2024; 09:38:42; 004;  19,48;   64,0;   1223;     20;       ;       ;       ;       ;       ;        
04/03/2024; 09:39:42; 004;  19,38;   64,4;   1202;     20;       ;       ;       ;       ;       ;        
04/03/2024; 09:40:42; 004;  19,23;   64,7;   1201;     10;       ;       ;       ;       ;       ;        
04/03/2024; 09:41:42; 004;  19,18;   65,2;   1209;     10;       ;       ;       ;       ;       ;        
04/03/2024; 09:42:42; 004;  19,11;   65,4;   1238;     20;       ;       ;       ;       ;       ;        
04/03/2024; 09:43:42; 004;  19,06;   65,5;   1243;     20;       ;       ;       ;       ;       ;        
04/03/2024; 09:44:42; 004;  19,14;   65,4;   1246;     10;       ;       ;       ;       ;       ;        
04/03/2024; 09:45:42; 004;  19,11;   65,6;   1270;     20;       ;       ;       ;       ;       ;        
04/03/2024; 09:46:42; 004;  19,06;   65,8;   1299;     20;       ;       ;       ;       ;       ;        
04/03/2024; 09:47:43; 004;  19,08;   65,9;   1321;     20;       ;       ;       ;       ;       ;        
04/03/2024; 09:48:43; 004;  19,01;   66,2;   1337;     20;       ;       ;       ;       ;       ;        
04/03/2024; 09:49:43; 004;  19,00;   66,3;   1340;     10;       ;       ;       ;       ;       ;        
04/03/2024; 09:50:43; 004;  18,98;   66,5;   1357;     30;       ;       ;       ;       ;       ;        
04/03/2024; 09:51:43; 004;  19,00;   66,5;   1381;     30;       ;       ;       ;       ;       ;        
04/03/2024; 09:52:43; 004;  18,96;   66,7;   1390;     20;       ;       ;       ;       ;       ;        
04/03/2024; 09:53:43; 004;  18,94;   66,9;   1391;     30;       ;       ;       ;       ;       ;        
04/03/2024; 09:54:43; 004;  18,94;   67,0;   1420;     30;       ;       ;       ;       ;       ;        
04/03/2024; 09:55:43; 004;  18,89;   67,1;   1431;     30;       ;       ;       ;       ;       ;        
04/03/2024; 09:56:43; 004;  18,91;   67,2;   1433;     30;       ;       ;       ;       ;       ;        
04/03/2024; 09:57:43; 004;  18,93;   67,3;   1468;     30;       ;       ;       ;       ;       ;        
04/03/2024; 09:58:43; 004;  18,93;   67,4;   1484;     30;       ;       ;       ;       ;       ;        
04/03/2024; 09:59:43; 004;  18,91;   67,5;   1512;     40;       ;       ;       ;       ;       ;        
04/03/2024; 10:00:43; 004;  18,89;   67,6;   1540;     40;       ;       ;       ;       ;       ;        
04/03/2024; 10:01:43; 004;  18,91;   67,6;   1530;     30;       ;       ;       ;       ;       ;        
04/03/2024; 10:02:43; 004;  18,98;   67,4;   1541;     40;       ;       ;       ;       ;       ;        
04/03/2024; 10:03:43; 004;  18,94;   67,8;   1563;     40;       ;       ;       ;       ;       ;        
04/03/2024; 10:04:43; 004;  18,91;   67,9;   1565;     50;       ;       ;       ;       ;       ;        
04/03/2024; 10:05:43; 004;  18,97;   67,9;   1538;     50;       ;       ;       ;       ;       ;        
04/03/2024; 10:06:43; 004;  18,94;   67,9;   1572;     50;       ;       ;       ;       ;       ;        
04/03/2024; 10:07:43; 004;  18,91;   68,1;   1606;     30;       ;       ;       ;       ;       ;        
04/03/2024; 10:08:43; 004;  18,91;   68,2;   1638;     20;       ;       ;       ;       ;       ;        
04/03/2024; 10:09:43; 004;  18,96;   68,2;   1666;     20;       ;       ;       ;       ;       ;        
04/03/2024; 10:10:43; 004;  18,94;   68,5;   1694;     30;       ;       ;       ;       ;       ;        
04/03/2024; 10:11:43; 004;  18,86;   68,6;   1711;     40;       ;       ;       ;       ;       ;        
04/03/2024; 10:12:43; 004;  18,87;   68,7;   1717;     60;       ;       ;       ;       ;       ;        
04/03/2024; 10:13:43; 004;  18,91;   68,8;   1722;     50;       ;       ;       ;       ;       ;        
04/03/2024; 10:14:43; 004;  18,91;   68,7;   1767;     60;       ;       ;       ;       ;       ;        
04/03/2024; 10:15:43; 004;  18,93;   68,9;   1787;     70;       ;       ;       ;       ;       ;        
04/03/2024; 10:16:43; 004;  18,93;   69,0;   1788;     60;       ;       ;       ;       ;       ;        
04/03/2024; 10:17:43; 004;  18,90;   68,9;   1780;     70;       ;       ;       ;       ;       ;        
04/03/2024; 10:18:43; 004;  18,90;   69,0;   1788;     70;       ;       ;       ;       ;       ;        
04/03/2024; 10:19:43; 004;  18,93;   69,2;   1796;     80;       ;       ;       ;       ;       ;        
04/03/2024; 10:20:00;    ;       ;       ;       ;       ;       ;       ;       ;       ;       ;       
04/03/2024; 10:21:43; 004;  18,93;   69,2;   1794;     70;       ;       ;       ;       ;       ;        
04/03/2024; 10:22:43; 004;  18,90;   69,3;   1804;     70;       ;       ;       ;       ;       ;        
04/03/2024; 10:23:43; 004;  18,94;   69,3;   1807;     80;       ;       ;       ;       ;       ;        
04/03/2024; 10:24:43; 004;  19,01;   69,3;   1846;     80;       ;       ;       ;       ;       ;        
04/03/2024; 10:25:43; 004;  18,98;   69,3;   1886;     90;       ;       ;       ;       ;       ;        
04/03/2024; 10:26:43; 004;  19,01;   69,3;   1920;     90;       ;       ;       ;       ;       ;        
04/03/2024; 10:27:43; 004;  19,15;   68,8;   1927;     90;       ;       ;       ;       ;       ;        
04/03/2024; 10:28:43; 004;  19,26;   68,5;   1925;     80;       ;       ;       ;       ;       ;        
04/03/2024; 10:29:43; 004;  19,40;   67,7;   1883;     60;       ;       ;       ;       ;       ;        
04/03/2024; 10:30:43; 004;  19,51;   67,0;   1733;     50;       ;       ;       ;       ;       ;        
04/03/2024; 10:31:43; 004;  19,61;   66,4;   1637;     50;       ;       ;       ;       ;       ;        
04/03/2024; 10:32:43; 004;  19,71;   66,0;   1561;     40;       ;       ;       ;       ;       ;        
04/03/2024; 10:33:43; 004;  19,75;   65,7;   1537;     50;       ;       ;       ;       ;       ;        
04/03/2024; 10:34:43; 004;  19,82;   65,3;   1536;     60;       ;       ;       ;       ;       ;        
04/03/2024; 10:35:43; 004;  19,88;   65,1;   1535;     40;       ;       ;       ;       ;       ;        
04/03/2024; 10:36:43; 004;  19,93;   65,0;   1552;     30;       ;       ;       ;       ;       ;        
04/03/2024; 10:37:43; 004;  20,02;   64,6;   1567;     30;       ;       ;       ;       ;       ;        
04/03/2024; 10:38:43; 004;  20,08;   64,4;   1555;     70;       ;       ;       ;       ;       ;        
04/03/2024; 10:39:43; 004;  20,13;   64,3;   1551;     70;       ;       ;       ;       ;       ;        
04/03/2024; 10:40:43; 004;  20,16;   64,1;   1554;     70;       ;       ;       ;       ;       ;        
04/03/2024; 10:41:43; 004;  20,02;   64,1;   1536;     70;       ;       ;       ;       ;       ;        
04/03/2024; 10:42:43; 004;  20,12;   64,0;   1494;     90;       ;       ;       ;       ;       ;        
04/03/2024; 10:43:43; 004;  20,22;   63,6;   1490;    100;       ;       ;       ;       ;       ;        
04/03/2024; 10:44:43; 004;  20,23;   63,5;   1502;    100;       ;       ;       ;       ;       ;        
04/03/2024; 10:45:43; 004;  20,27;   63,5;   1514;     70;       ;       ;       ;       ;       ;        
04/03/2024; 10:46:43; 004;  20,31;   63,2;   1515;     60;       ;       ;       ;       ;       ;        
04/03/2024; 10:47:43; 004;  20,27;   63,2;   1498;     50;       ;       ;       ;       ;       ;        
04/03/2024; 10:48:43; 004;  20,30;   63,2;   1488;     60;       ;       ;       ;       ;       ;        
04/03/2024; 10:49:43; 004;  20,33;   63,0;   1475;     40;       ;       ;       ;       ;       ;        
04/03/2024; 10:50:43; 004;  20,33;   63,0;   1486;     40;       ;       ;       ;       ;       ;        
04/03/2024; 10:51:43; 004;  20,30;   62,9;   1483;     80;       ;       ;       ;       ;       ;        
04/03/2024; 10:52:43; 004;  20,34;   62,8;   1473;     90;       ;       ;       ;       ;       ;        
04/03/2024; 10:53:43; 004;  20,36;   62,8;   1467;    100;       ;       ;       ;       ;       ;        
04/03/2024; 10:54:43; 004;  20,40;   62,7;   1467;    100;       ;       ;       ;       ;       ;        
04/03/2024; 10:55:43; 004;  20,41;   62,6;   1465;    110;       ;       ;       ;       ;       ;        
04/03/2024; 10:56:43; 004;  20,43;   62,5;   1466;    110;       ;       ;       ;       ;       ;        
04/03/2024; 10:57:43; 004;  20,46;   62,4;   1462;     90;       ;       ;       ;       ;       ;        
04/03/2024; 10:58:43; 004;  20,50;   62,3;   1461;     70;       ;       ;       ;       ;       ;        
04/03/2024; 10:59:43; 004;  20,46;   62,3;   1457;     70;       ;       ;       ;       ;       ;        
04/03/2024; 11:00:43; 004;  20,48;   62,2;   1450;     70;       ;       ;       ;       ;       ;        
04/03/2024; 11:01:43; 004;  20,51;   62,2;   1448;     80;       ;       ;       ;       ;       ;        
04/03/2024; 11:02:43; 004;  20,52;   62,1;   1451;     80;       ;       ;       ;       ;       ;        
04/03/2024; 11:03:43; 004;  20,51;   62,0;   1448;     80;       ;       ;       ;       ;       ;        
04/03/2024; 11:04:43; 004;  20,57;   62,0;   1433;     70;       ;       ;       ;       ;       ;        
04/03/2024; 11:05:43; 004;  20,52;   62,0;   1426;    100;       ;       ;       ;       ;       ;        
04/03/2024; 11:06:43; 004;  20,54;   62,0;   1427;    130;       ;       ;       ;       ;       ;        
04/03/2024; 11:07:43; 004;  20,55;   61,9;   1425;     80;       ;       ;       ;       ;       ;        
04/03/2024; 11:08:43; 004;  20,60;   61,8;   1426;     80;       ;       ;       ;       ;       ;        
04/03/2024; 11:09:44; 004;  20,61;   61,7;   1420;     70;       ;       ;       ;       ;       ;        
04/03/2024; 11:10:44; 004;  20,61;   61,7;   1411;     70;       ;       ;       ;       ;       ;        
04/03/2024; 11:11:44; 004;  20,61;   61,5;   1409;     70;       ;       ;       ;       ;       ;        
04/03/2024; 11:12:44; 004;  20,62;   61,6;   1408;     50;       ;       ;       ;       ;       ;        
04/03/2024; 11:13:44; 004;  20,66;   61,5;   1404;     40;       ;       ;       ;       ;       ;        
04/03/2024; 11:14:44; 004;  20,67;   61,4;   1397;     40;       ;       ;       ;       ;       ;        
04/03/2024; 11:15:44; 004;  20,68;   61,3;   1389;     40;       ;       ;       ;       ;       ;        
04/03/2024; 11:16:44; 004;  20,71;   61,3;   1386;     30;       ;       ;       ;       ;       ;        
04/03/2024; 11:17:44; 004;  20,71;   61,2;   1383;     30;       ;       ;       ;       ;       ;        
04/03/2024; 11:18:44; 004;  20,71;   61,2;   1381;     30;       ;       ;       ;       ;       ;        
04/03/2024; 11:19:44; 004;  20,70;   61,2;   1378;     30;       ;       ;       ;       ;       ;        
04/03/2024; 11:20:44; 004;  20,67;   61,2;   1383;     30;       ;       ;       ;       ;       ;        
04/03/2024; 11:21:44; 004;  20,70;   61,2;   1384;     40;       ;       ;       ;       ;       ;        
04/03/2024; 11:22:44; 004;  20,71;   61,2;   1384;    110;       ;       ;       ;       ;       ;        
04/03/2024; 11:23:44; 004;  20,73;   61,1;   1377;    130;       ;       ;       ;       ;       ;        
04/03/2024; 11:24:44; 004;  20,75;   61,0;   1372;    150;       ;       ;       ;       ;       ;        
04/03/2024; 11:25:44; 004;  20,82;   60,9;   1369;    170;       ;       ;       ;       ;       ;        
04/03/2024; 11:26:44; 004;  20,87;   60,8;   1366;    180;       ;       ;       ;       ;       ;        
04/03/2024; 11:27:44; 004;  20,84;   60,7;   1369;    190;       ;       ;       ;       ;       ;        
04/03/2024; 11:28:44; 004;  20,88;   60,7;   1363;    190;       ;       ;       ;       ;       ;        
04/03/2024; 11:29:44; 004;  20,84;   60,7;   1362;    210;       ;       ;       ;       ;       ;        
04/03/2024; 11:30:44; 004;  20,92;   60,6;   1358;    210;       ;       ;       ;       ;       ;        
04/03/2024; 11:31:44; 004;  20,98;   60,3;   1349;    220;       ;       ;       ;       ;       ;        
04/03/2024; 11:32:44; 004;  20,91;   60,5;   1351;    230;       ;       ;       ;       ;       ;        
04/03/2024; 11:33:44; 004;  20,90;   60,6;   1370;    240;       ;       ;       ;       ;       ;        
04/03/2024; 11:34:44; 004;  20,85;   60,5;   1382;    240;       ;       ;       ;       ;       ;        
04/03/2024; 11:35:44; 004;  20,78;   60,7;   1390;    250;       ;       ;       ;       ;       ;        
04/03/2024; 11:36:44; 004;  20,75;   60,9;   1407;    250;       ;       ;       ;       ;       ;        
04/03/2024; 11:37:44; 004;  20,71;   61,1;   1437;    140;       ;       ;       ;       ;       ;        
04/03/2024; 11:38:44; 004;  20,60;   61,2;   1466;    270;       ;       ;       ;       ;       ;        
04/03/2024; 11:39:44; 004;  20,58;   61,5;   1491;    250;       ;       ;       ;       ;       ;        
04/03/2024; 11:40:44; 004;  20,54;   61,7;   1511;    280;       ;       ;       ;       ;       ;        
04/03/2024; 11:41:44; 004;  20,62;   61,5;   1535;    280;       ;       ;       ;       ;       ;        
04/03/2024; 11:42:44; 004;  20,58;   61,8;   1557;    180;       ;       ;       ;       ;       ;        
04/03/2024; 11:43:44; 004;  20,54;   61,8;   1578;    280;       ;       ;       ;       ;       ;        
04/03/2024; 11:44:44; 004;  20,47;   62,1;   1587;    280;       ;       ;       ;       ;       ;        
04/03/2024; 11:45:44; 004;  20,44;   62,2;   1599;    290;       ;       ;       ;       ;       ;        
04/03/2024; 11:46:44; 004;  20,31;   62,7;   1602;    300;       ;       ;       ;       ;       ;        
04/03/2024; 11:47:44; 004;  20,29;   62,9;   1630;    300;       ;       ;       ;       ;       ;        
04/03/2024; 11:48:44; 004;  20,27;   63,1;   1664;    300;       ;       ;       ;       ;       ;        
04/03/2024; 11:49:44; 004;  20,22;   63,4;   1688;    290;       ;       ;       ;       ;       ;        
04/03/2024; 11:50:44; 004;  20,15;   63,7;   1709;    280;       ;       ;       ;       ;       ;        
04/03/2024; 11:51:44; 004;  20,10;   64,0;   1736;    270;       ;       ;       ;       ;       ;        
04/03/2024; 11:52:44; 004;  20,09;   64,2;   1762;    270;       ;       ;       ;       ;       ;        
04/03/2024; 11:53:44; 004;  20,02;   64,5;   1780;    270;       ;       ;       ;       ;       ;        
04/03/2024; 11:54:44; 004;  20,13;   64,3;   1803;    290;       ;       ;       ;       ;       ;        
04/03/2024; 11:55:44; 004;  20,15;   64,6;   1849;    280;       ;       ;       ;       ;       ;        
04/03/2024; 11:56:44; 004;  20,43;   64,0;   1919;    300;       ;       ;       ;       ;       ;        
04/03/2024; 11:57:44; 004;  20,36;   64,2;   1955;    300;       ;       ;       ;       ;       ;        
04/03/2024; 11:58:44; 004;  20,33;   64,5;   1998;    310;       ;       ;       ;       ;       ;        
04/03/2024; 11:59:44; 004;  20,33;   64,7;   2000;    310;       ;       ;       ;       ;       ;        
04/03/2024; 12:00:44; 004;  20,26;   64,9;   2000;    310;       ;       ;       ;       ;       ;        
04/03/2024; 12:01:44; 004;  20,24;   65,1;   2000;    310;       ;       ;       ;       ;       ;        
04/03/2024; 12:02:44; 004;  20,30;   65,1;   2000;    310;       ;       ;       ;       ;       ;        
04/03/2024; 12:03:44; 004;  20,34;   65,2;   2000;    310;       ;       ;       ;       ;       ;        
04/03/2024; 12:04:44; 004;  20,34;   65,1;   2000;    130;       ;       ;       ;       ;       ;        
04/03/2024; 12:05:44; 004;  20,43;   65,0;   2000;    240;       ;       ;       ;       ;       ;        
04/03/2024; 12:06:44; 004;  20,29;   65,6;   2000;    120;       ;       ;       ;       ;       ;        
04/03/2024; 12:07:44; 004;  20,34;   65,6;   2000;    320;       ;       ;       ;       ;       ;        
04/03/2024; 12:08:44; 004;  20,37;   65,7;   2000;    180;       ;       ;       ;       ;       ;        
04/03/2024; 12:09:44; 004;  20,40;   65,7;   2000;    100;       ;       ;       ;       ;       ;        
04/03/2024; 12:10:44; 004;  20,37;   66,0;   2000;    180;       ;       ;       ;       ;       ;        
04/03/2024; 12:11:44; 004;  20,39;   66,0;   2000;    120;       ;       ;       ;       ;       ;        
04/03/2024; 12:12:44; 004;  20,36;   66,1;   2000;    130;       ;       ;       ;       ;       ;        
04/03/2024; 12:13:44; 004;  20,40;   66,1;   2000;    220;       ;       ;       ;       ;       ;        
04/03/2024; 12:14:44; 004;  20,39;   66,3;   2000;     90;       ;       ;       ;       ;       ;        
04/03/2024; 12:15:44; 004;  20,39;   66,4;   2000;     70;       ;       ;       ;       ;       ;        
04/03/2024; 12:16:44; 004;  20,37;   66,7;   2000;    240;       ;       ;       ;       ;       ;        
04/03/2024; 12:17:44; 004;  20,48;   66,4;   2000;    140;       ;       ;       ;       ;       ;        
04/03/2024; 12:18:44; 004;  20,54;   66,4;   2000;    300;       ;       ;       ;       ;       ;        
04/03/2024; 12:19:44; 004;  20,67;   66,1;   2000;    300;       ;       ;       ;       ;       ;        
04/03/2024; 12:20:44; 004;  20,95;   65,3;   2000;    260;       ;       ;       ;       ;       ;        
04/03/2024; 12:21:44; 004;  21,19;   64,6;   2000;    260;       ;       ;       ;       ;       ;        
04/03/2024; 12:22:44; 004;  21,60;   62,8;   2000;    260;       ;       ;       ;       ;       ;        
04/03/2024; 12:23:44; 004;  21,97;   61,4;   2000;    290;       ;       ;       ;       ;       ;        
04/03/2024; 12:24:45; 004;  21,99;   60,9;   2000;    270;       ;       ;       ;       ;       ;        
04/03/2024; 12:25:44; 004;  22,11;   60,2;   1978;    270;       ;       ;       ;       ;       ;        
04/03/2024; 12:26:44; 004;  22,15;   59,6;   1913;    270;       ;       ;       ;       ;       ;        
04/03/2024; 12:27:44; 004;  22,17;   59,2;   1797;    270;       ;       ;       ;       ;       ;        
04/03/2024; 12:28:44; 004;  22,21;   58,8;   1716;    210;       ;       ;       ;       ;       ;        
04/03/2024; 12:29:44; 004;  22,13;   58,0;   1660;    290;       ;       ;       ;       ;       ;        
04/03/2024; 12:30:44; 004;  22,15;   58,0;   1577;    230;       ;       ;       ;       ;       ;        
04/03/2024; 12:31:44; 004;  22,58;   56,2;   1516;    300;       ;       ;       ;       ;       ;        
04/03/2024; 12:32:44; 004;  22,93;   54,6;   1371;    310;       ;       ;       ;       ;       ;        
04/03/2024; 12:33:44; 004;  23,04;   52,2;   1314;    170;       ;       ;       ;       ;       ;        
04/03/2024; 12:34:44; 004;  23,12;   53,4;   1220;    200;       ;       ;       ;       ;       ;        
04/03/2024; 12:35:44; 004;  22,89;   53,6;   1220;    140;       ;       ;       ;       ;       ;        
04/03/2024; 12:36:45; 004;  22,65;   54,0;   1236;    310;       ;       ;       ;       ;       ;        
04/03/2024; 12:37:45; 004;  22,90;   52,7;   1235;    110;       ;       ;       ;       ;       ;        
04/03/2024; 12:38:45; 004;  23,06;   52,5;   1199;    160;       ;       ;       ;       ;       ;        
04/03/2024; 12:39:45; 004;  22,93;   52,9;   1136;    190;       ;       ;       ;       ;       ;        
04/03/2024; 12:40:45; 004;  22,92;   52,9;   1148;    180;       ;       ;       ;       ;       ;        
04/03/2024; 12:41:45; 004;  23,04;   52,8;   1150;    170;       ;       ;       ;       ;       ;        
04/03/2024; 12:42:45; 004;  23,34;   51,1;   1134;    140;       ;       ;       ;       ;       ;        
04/03/2024; 12:43:45; 004;  23,68;   50,3;   1004;    200;       ;       ;       ;       ;       ;        
04/03/2024; 12:44:45; 004;  23,51;   50,7;    975;     60;       ;       ;       ;       ;       ;        
04/03/2024; 12:45:45; 004;  23,47;   49,7;    975;     40;       ;       ;       ;       ;       ;        
04/03/2024; 12:46:45; 004;  23,65;   48,7;    913;     40;       ;       ;       ;       ;       ;        
04/03/2024; 12:47:45; 004;  23,38;   49,7;    858;    180;       ;       ;       ;       ;       ;        
04/03/2024; 12:48:45; 004;  23,36;   50,1;    872;    260;       ;       ;       ;       ;       ;        
04/03/2024; 12:49:45; 004;  23,54;   47,2;    860;    330;       ;       ;       ;       ;       ;        
04/03/2024; 12:50:45; 004;  23,73;   46,7;    786;    320;       ;       ;       ;       ;       ;        
04/03/2024; 12:51:45; 004;  23,99;   46,5;    741;    320;       ;       ;       ;       ;       ;        
04/03/2024; 12:52:45; 004;  24,08;   45,5;    718;    320;       ;       ;       ;       ;       ;        
04/03/2024; 12:53:45; 004;  24,16;   45,8;    684;    340;       ;       ;       ;       ;       ;        
04/03/2024; 12:54:45; 004;  24,15;   45,3;    666;    340;       ;       ;       ;       ;       ;        
04/03/2024; 12:55:45; 004;  23,98;   46,0;    645;    270;       ;       ;       ;       ;       ;        
04/03/2024; 12:56:45; 004;  24,14;   45,4;    643;    350;       ;       ;       ;       ;       ;        
04/03/2024; 12:57:45; 004;  24,14;   45,9;    630;    150;       ;       ;       ;       ;       ;        
04/03/2024; 12:58:45; 004;  24,02;   46,2;    633;     50;       ;       ;       ;       ;       ;        
04/03/2024; 12:59:45; 004;  23,88;   46,6;    642;     50;       ;       ;       ;       ;       ;        
04/03/2024; 13:00:45; 004;  23,55;   46,6;    656;    130;       ;       ;       ;       ;       ;        
04/03/2024; 13:01:45; 004;  23,36;   47,2;    672;     40;       ;       ;       ;       ;       ;        
04/03/2024; 13:02:45; 004;  23,26;   47,7;    680;     60;       ;       ;       ;       ;       ;        
04/03/2024; 13:03:45; 004;  23,36;   47,5;    689;    360;       ;       ;       ;       ;       ;        
04/03/2024; 13:04:45; 004;  23,47;   47,5;    690;    360;       ;       ;       ;       ;       ;        
04/03/2024; 13:05:45; 004;  23,69;   46,8;    691;    360;       ;       ;       ;       ;       ;        
04/03/2024; 13:06:45; 004;  23,73;   46,4;    680;    360;       ;       ;       ;       ;       ;        
04/03/2024; 13:07:45; 004;  23,68;   46,6;    678;    360;       ;       ;       ;       ;       ;        
04/03/2024; 13:08:45; 004;  23,43;   46,8;    691;    360;       ;       ;       ;       ;       ;        
04/03/2024; 13:09:45; 004;  23,16;   47,3;    698;    360;       ;       ;       ;       ;       ;        
04/03/2024; 13:10:45; 004;  23,44;   46,9;    711;    370;       ;       ;       ;       ;       ;        
04/03/2024; 13:11:45; 004;  23,77;   46,5;    704;    360;       ;       ;       ;       ;       ;        
04/03/2024; 13:12:45; 004;  23,95;   45,0;    689;    350;       ;       ;       ;       ;       ;        
04/03/2024; 13:13:45; 004;  24,22;   45,1;    669;    350;       ;       ;       ;       ;       ;        
04/03/2024; 13:14:45; 004;  24,15;   45,5;    658;    350;       ;       ;       ;       ;       ;        
04/03/2024; 13:15:45; 004;  24,23;   44,6;    674;    340;       ;       ;       ;       ;       ;        
04/03/2024; 13:16:45; 004;  23,92;   45,0;    650;    330;       ;       ;       ;       ;       ;        
04/03/2024; 13:17:45; 004;  23,67;   45,8;    666;    310;       ;       ;       ;       ;       ;        
04/03/2024; 13:18:45; 004;  23,75;   44,9;    685;    320;       ;       ;       ;       ;       ;        
04/03/2024; 13:19:45; 004;  24,14;   44,4;    665;    320;       ;       ;       ;       ;       ;        
04/03/2024; 13:20:45; 004;  24,08;   44,8;    638;    330;       ;       ;       ;       ;       ;        
04/03/2024; 13:21:45; 004;  23,98;   45,3;    654;    320;       ;       ;       ;       ;       ;        
04/03/2024; 13:22:45; 004;  24,18;   44,9;    669;    320;       ;       ;       ;       ;       ;        
04/03/2024; 13:23:45; 004;  24,29;   44,7;    662;    180;       ;       ;       ;       ;       ;        
04/03/2024; 13:24:45; 004;  24,36;   44,6;    643;    320;       ;       ;       ;       ;       ;        
04/03/2024; 13:25:45; 004;  24,38;   44,5;    633;    320;       ;       ;       ;       ;       ;        
04/03/2024; 13:26:45; 004;  24,50;   44,1;    630;     90;       ;       ;       ;       ;       ;        
04/03/2024; 13:27:45; 004;  24,59;   44,1;    634;     50;       ;       ;       ;       ;       ;        
04/03/2024; 13:28:45; 004;  24,59;   42,4;    625;     50;       ;       ;       ;       ;       ;        
04/03/2024; 13:29:45; 004;  24,56;   42,1;    585;    230;       ;       ;       ;       ;       ;        
04/03/2024; 13:30:45; 004;  24,60;   42,1;    567;     70;       ;       ;       ;       ;       ;        
04/03/2024; 13:31:45; 004;  24,56;   41,6;    555;    150;       ;       ;       ;       ;       ;        
04/03/2024; 13:32:45; 004;  24,63;   41,7;    539;    340;       ;       ;       ;       ;       ;        
04/03/2024; 13:33:45; 004;  24,56;   42,4;    535;    340;       ;       ;       ;       ;       ;        
04/03/2024; 13:34:45; 004;  24,45;   41,7;    539;    340;       ;       ;       ;       ;       ;        
04/03/2024; 13:35:45; 004;  24,26;   42,3;    520;    350;       ;       ;       ;       ;       ;        
04/03/2024; 13:36:45; 004;  24,38;   41,1;    512;    340;       ;       ;       ;       ;       ;        
04/03/2024; 13:37:45; 004;  24,36;   41,3;    493;    160;       ;       ;       ;       ;       ;        
04/03/2024; 13:38:45; 004;  24,39;   41,6;    482;     60;       ;       ;       ;       ;       ;        
04/03/2024; 13:39:45; 004;  24,39;   41,9;    481;    330;       ;       ;       ;       ;       ;        
04/03/2024; 13:40:45; 004;  24,43;   40,7;    489;    330;       ;       ;       ;       ;       ;        
04/03/2024; 13:41:45; 004;  24,50;   40,8;    473;    340;       ;       ;       ;       ;       ;        
04/03/2024; 13:42:45; 004;  24,43;   41,3;    464;    340;       ;       ;       ;       ;       ;        
04/03/2024; 13:43:45; 004;  24,43;   40,3;    463;    340;       ;       ;       ;       ;       ;        
04/03/2024; 13:44:45; 004;  24,52;   40,7;    450;    340;       ;       ;       ;       ;       ;        
04/03/2024; 13:45:45; 004;  24,38;   40,3;    449;    340;       ;       ;       ;       ;       ;        
04/03/2024; 13:46:45; 004;  24,22;   40,4;    443;    340;       ;       ;       ;       ;       ;        
04/03/2024; 13:47:45; 004;  24,45;   40,6;    441;    350;       ;       ;       ;       ;       ;        
04/03/2024; 13:48:45; 004;  24,40;   41,1;    439;    350;       ;       ;       ;       ;       ;        
04/03/2024; 13:49:45; 004;  24,39;   41,4;    453;    350;       ;       ;       ;       ;       ;        
04/03/2024; 13:50:45; 004;  24,42;   41,5;    464;    350;       ;       ;       ;       ;       ;        
04/03/2024; 13:51:45; 004;  24,47;   41,2;    468;    350;       ;       ;       ;       ;       ;        
04/03/2024; 13:52:45; 004;  24,57;   41,0;    466;    350;       ;       ;       ;       ;       ;        
04/03/2024; 13:53:45; 004;  24,69;   41,1;    465;    360;       ;       ;       ;       ;       ;        
04/03/2024; 13:54:45; 004;  24,71;   41,0;    482;    360;       ;       ;       ;       ;       ;        
04/03/2024; 13:55:45; 004;  24,67;   40,6;    478;    360;       ;       ;       ;       ;       ;        
04/03/2024; 13:56:45; 004;  24,74;   40,0;    458;    360;       ;       ;       ;       ;       ;        
04/03/2024; 13:57:45; 004;  24,78;   39,8;    447;    360;       ;       ;       ;       ;       ;        
04/03/2024; 13:58:45; 004;  24,88;   39,6;    439;    350;       ;       ;       ;       ;       ;        
04/03/2024; 13:59:45; 004;  24,83;   39,4;    435;    360;       ;       ;       ;       ;       ;        
04/03/2024; 14:00:45; 004;  24,96;   39,8;    427;    350;       ;       ;       ;       ;       ;        
04/03/2024; 14:01:45; 004;  24,87;   40,4;    429;    350;       ;       ;       ;       ;       ;        
04/03/2024; 14:02:45; 004;  24,78;   40,7;    453;    350;       ;       ;       ;       ;       ;        
04/03/2024; 14:03:45; 004;  24,87;   40,5;    477;    350;       ;       ;       ;       ;       ;        
04/03/2024; 14:04:45; 004;  24,83;   40,6;    464;    360;       ;       ;       ;       ;       ;        
04/03/2024; 14:05:45; 004;  24,73;   40,8;    456;    370;       ;       ;       ;       ;       ;        
04/03/2024; 14:06:45; 004;  24,50;   41,6;    460;    380;       ;       ;       ;       ;       ;        
04/03/2024; 14:07:46; 004;  24,63;   41,1;    518;    380;       ;       ;       ;       ;       ;        
04/03/2024; 14:08:46; 004;  24,67;   40,3;    511;    120;       ;       ;       ;       ;       ;        
04/03/2024; 14:09:46; 004;  24,83;   40,5;    478;     60;       ;       ;       ;       ;       ;        
04/03/2024; 14:10:46; 004;  24,80;   40,4;    476;     60;       ;       ;       ;       ;       ;        
04/03/2024; 14:11:46; 004;  24,57;   40,5;    469;     90;       ;       ;       ;       ;       ;        
04/03/2024; 14:12:46; 004;  24,39;   41,2;    468;    200;       ;       ;       ;       ;       ;        
04/03/2024; 14:13:46; 004;  24,32;   41,7;    480;    400;       ;       ;       ;       ;       ;        
04/03/2024; 14:14:46; 004;  24,36;   42,0;    507;    390;       ;       ;       ;       ;       ;        
04/03/2024; 14:15:46; 004;  24,43;   41,4;    526;    320;       ;       ;       ;       ;       ;        
04/03/2024; 14:16:46; 004;  24,45;   40,5;    515;    100;       ;       ;       ;       ;       ;        
04/03/2024; 14:17:46; 004;  24,57;   40,4;    480;     50;       ;       ;       ;       ;       ;        
04/03/2024; 14:18:46; 004;  24,20;   40,0;    467;     50;       ;       ;       ;       ;       ;        
04/03/2024; 14:19:46; 004;  24,04;   40,4;    444;     80;       ;       ;       ;       ;       ;        
04/03/2024; 14:20:46; 004;  24,06;   40,2;    436;    380;       ;       ;       ;       ;       ;        
04/03/2024; 14:21:46; 004;  24,18;   40,3;    432;     70;       ;       ;       ;       ;       ;        
04/03/2024; 14:22:46; 004;  24,31;   40,3;    435;     40;       ;       ;       ;       ;       ;        
04/03/2024; 14:23:46; 004;  24,20;   40,7;    440;    350;       ;       ;       ;       ;       ;        
04/03/2024; 14:24:46; 004;  24,11;   40,4;    446;    380;       ;       ;       ;       ;       ;        
04/03/2024; 14:25:46; 004;  24,25;   40,4;    440;    390;       ;       ;       ;       ;       ;        
04/03/2024; 14:26:46; 004;  24,29;   40,4;    441;     70;       ;       ;       ;       ;       ;        
04/03/2024; 14:27:46; 004;  24,20;   40,0;    442;    160;       ;       ;       ;       ;       ;        
04/03/2024; 14:28:46; 004;  24,38;   40,1;    440;    400;       ;       ;       ;       ;       ;        
04/03/2024; 14:29:46; 004;  24,09;   39,9;    433;    220;       ;       ;       ;       ;       ;        
04/03/2024; 14:30:46; 004;  23,95;   39,9;    424;    160;       ;       ;       ;       ;       ;        
04/03/2024; 14:31:46; 004;  23,89;   40,0;    419;    390;       ;       ;       ;       ;       ;        
04/03/2024; 14:32:46; 004;  23,69;   40,3;    414;     70;       ;       ;       ;       ;       ;        
04/03/2024; 14:33:46; 004;  23,83;   40,5;    409;    320;       ;       ;       ;       ;       ;        
04/03/2024; 14:34:46; 004;  23,98;   40,5;    409;    380;       ;       ;       ;       ;       ;        
04/03/2024; 14:35:46; 004;  23,78;   40,5;    414;     70;       ;       ;       ;       ;       ;        
04/03/2024; 14:36:46; 004;  23,77;   40,6;    415;    190;       ;       ;       ;       ;       ;        
04/03/2024; 14:37:46; 004;  23,73;   41,1;    422;    380;       ;       ;       ;       ;       ;        
04/03/2024; 14:38:46; 004;  23,89;   41,1;    436;    380;       ;       ;       ;       ;       ;        
04/03/2024; 14:39:46; 004;  23,78;   41,1;    437;    100;       ;       ;       ;       ;       ;        
04/03/2024; 14:40:46; 004;  23,91;   41,2;    437;    120;       ;       ;       ;       ;       ;        
04/03/2024; 14:41:46; 004;  23,98;   41,3;    442;    380;       ;       ;       ;       ;       ;        
04/03/2024; 14:42:46; 004;  24,01;   41,0;    451;    100;       ;       ;       ;       ;       ;        
04/03/2024; 14:43:46; 004;  24,22;   40,6;    452;     70;       ;       ;       ;       ;       ;        
04/03/2024; 14:44:46; 004;  24,35;   40,2;    444;    130;       ;       ;       ;       ;       ;        
04/03/2024; 14:45:46; 004;  24,45;   40,2;    435;     60;       ;       ;       ;       ;       ;        
04/03/2024; 14:46:46; 004;  24,32;   40,9;    435;     60;       ;       ;       ;       ;       ;        
04/03/2024; 14:47:46; 004;  24,19;   41,2;    451;     80;       ;       ;       ;       ;       ;        
04/03/2024; 14:48:46; 004;  23,92;   42,0;    481;    150;       ;       ;       ;       ;       ;        
04/03/2024; 14:49:46; 004;  24,15;   41,7;    502;    250;       ;       ;       ;       ;       ;        
04/03/2024; 14:50:46; 004;  24,22;   41,5;    501;    240;       ;       ;       ;       ;       ;        
04/03/2024; 14:51:46; 004;  24,25;   40,8;    495;    240;       ;       ;       ;       ;       ;        
04/03/2024; 14:52:46; 004;  24,49;   40,6;    473;    270;       ;       ;       ;       ;       ;        
04/03/2024; 14:53:46; 004;  24,59;   40,7;    464;    220;       ;       ;       ;       ;       ;        
04/03/2024; 14:54:46; 004;  24,65;   40,7;    467;    110;       ;       ;       ;       ;       ;        
04/03/2024; 14:55:46; 004;  24,55;   40,6;    467;    100;       ;       ;       ;       ;       ;        
04/03/2024; 14:56:46; 004;  24,57;   40,7;    465;    150;       ;       ;       ;       ;       ;        
04/03/2024; 14:57:46; 004;  24,62;   40,4;    463;    110;       ;       ;       ;       ;       ;        
04/03/2024; 14:58:46; 004;  24,42;   40,0;    455;     80;       ;       ;       ;       ;       ;        
04/03/2024; 14:59:46; 004;  24,39;   40,2;    443;    100;       ;       ;       ;       ;       ;        
04/03/2024; 15:00:46; 004;  24,40;   40,4;    446;     80;       ;       ;       ;       ;       ;        
04/03/2024; 15:01:46; 004;  24,42;   40,4;    449;     70;       ;       ;       ;       ;       ;        
04/03/2024; 15:02:46; 004;  24,40;   40,2;    446;     60;       ;       ;       ;       ;       ;        
04/03/2024; 15:03:46; 004;  24,38;   39,9;    438;     50;       ;       ;       ;       ;       ;        
04/03/2024; 15:04:46; 004;  24,31;   39,7;    432;     30;       ;       ;       ;       ;       ;        
04/03/2024; 15:05:46; 004;  24,29;   40,1;    424;     20;       ;       ;       ;       ;       ;        
04/03/2024; 15:06:46; 004;  23,99;   40,0;    420;     10;       ;       ;       ;       ;       ;        
04/03/2024; 15:07:46; 004;  23,78;   40,3;    412;      0;       ;       ;       ;       ;       ;        
04/03/2024; 15:08:46; 004;  23,61;   40,4;    408;      0;       ;       ;       ;       ;       ;        
04/03/2024; 15:09:46; 004;  23,64;   40,5;    406;      0;       ;       ;       ;       ;       ;        
04/03/2024; 15:10:46; 004;  23,29;   40,8;    405;      0;       ;       ;       ;       ;       ;        
04/03/2024; 15:11:46; 004;  23,47;   40,8;    404;      0;       ;       ;       ;       ;       ;        
04/03/2024; 15:12:46; 004;  23,51;   40,8;    404;      0;       ;       ;       ;       ;       ;        
04/03/2024; 15:13:46; 004;  23,58;   40,6;    406;      0;       ;       ;       ;       ;       ;        
04/03/2024; 15:14:46; 004;  23,47;   40,8;    406;      0;       ;       ;       ;       ;       ;        
04/03/2024; 15:15:46; 004;  23,65;   40,7;    406;      0;       ;       ;       ;       ;       ;        
04/03/2024; 15:16:46; 004;  23,50;   40,7;    405;      0;       ;       ;       ;       ;       ;        
04/03/2024; 15:17:46; 004;  23,68;   40,9;    406;      0;       ;       ;       ;       ;       ;        
04/03/2024; 15:18:46; 004;  23,68;   41,1;    410;      0;       ;       ;       ;       ;       ;        
04/03/2024; 15:19:46; 004;  23,68;   40,9;    412;      0;       ;       ;       ;       ;       ;        
04/03/2024; 15:20:46; 004;  23,91;   40,7;    408;      0;       ;       ;       ;       ;       ;        
04/03/2024; 15:21:47; 004;  23,87;   40,6;    408;      0;       ;       ;       ;       ;       ;        
04/03/2024; 15:22:47; 004;  23,63;   40,9;    407;      0;       ;       ;       ;       ;       ;        
04/03/2024; 15:23:47; 004;  23,74;   41,1;    407;      0;       ;       ;       ;       ;       ;        
04/03/2024; 15:24:46; 004;  23,69;   41,5;    415;      0;       ;       ;       ;       ;       ;        
04/03/2024; 15:25:46; 004;  23,83;   41,5;    430;      0;       ;       ;       ;       ;       ;        
04/03/2024; 15:26:46; 004;  23,95;   41,2;    432;      0;       ;       ;       ;       ;       ;        
04/03/2024; 15:27:46; 004;  24,06;   41,2;    420;      0;       ;       ;       ;       ;       ;        
04/03/2024; 15:28:46; 004;  24,16;   41,1;    415;      0;       ;       ;       ;       ;       ;        
04/03/2024; 15:29:46; 004;  24,20;   41,1;    415;      0;       ;       ;       ;       ;       ;        
04/03/2024; 15:30:47; 004;  23,92;   42,0;    437;      0;       ;       ;       ;       ;       ;        
04/03/2024; 15:31:47; 004;  23,43;   43,1;    474;      0;       ;       ;       ;       ;       ;        
04/03/2024; 15:32:47; 004;  23,03;   44,1;    492;      0;       ;       ;       ;       ;       ;        
04/03/2024; 15:33:47; 004;  22,87;   44,7;    491;      0;       ;       ;       ;       ;       ;        
04/03/2024; 15:34:47; 004;  22,78;   44,9;    488;      0;       ;       ;       ;       ;       ;        
04/03/2024; 15:35:47; 004;  22,81;   44,9;    486;      0;       ;       ;       ;       ;       ;        
04/03/2024; 15:36:47; 004;  23,02;   44,8;    495;      0;       ;       ;       ;       ;       ;        
04/03/2024; 15:37:47; 004;  23,47;   44,2;    506;      0;       ;       ;       ;       ;       ;        
04/03/2024; 15:38:47; 004;  23,88;   43,6;    500;      0;       ;       ;       ;       ;       ;        
04/03/2024; 15:39:47; 004;  23,71;   43,7;    492;      0;       ;       ;       ;       ;       ;        
04/03/2024; 15:40:47; 004;  23,89;   43,6;    511;      0;       ;       ;       ;       ;       ;        
04/03/2024; 15:41:47; 004;  24,16;   43,3;    506;      0;       ;       ;       ;       ;       ;        
04/03/2024; 15:42:47; 004;  24,18;   43,2;    494;      0;       ;       ;       ;       ;       ;        
04/03/2024; 15:43:47; 004;  24,05;   43,7;    514;      0;       ;       ;       ;       ;       ;        
04/03/2024; 15:44:47; 004;  24,09;   43,7;    533;     10;       ;       ;       ;       ;       ;        
04/03/2024; 15:45:47; 004;  23,96;   44,1;    540;     10;       ;       ;       ;       ;       ;        
04/03/2024; 15:46:47; 004;  24,18;   43,7;    550;     10;       ;       ;       ;       ;       ;        
04/03/2024; 15:47:47; 004;  24,34;   43,4;    533;     10;       ;       ;       ;       ;       ;        
04/03/2024; 15:48:47; 004;  24,53;   43,0;    511;     10;       ;       ;       ;       ;       ;        
04/03/2024; 15:49:47; 004;  24,66;   42,8;    501;     10;       ;       ;       ;       ;       ;        
04/03/2024; 15:50:47; 004;  24,76;   42,6;    499;     10;       ;       ;       ;       ;       ;        
04/03/2024; 15:51:47; 004;  24,73;   42,6;    489;      0;       ;       ;       ;       ;       ;        
04/03/2024; 15:52:47; 004;  24,71;   42,4;    484;      0;       ;       ;       ;       ;       ;        
04/03/2024; 15:53:47; 004;  24,67;   42,5;    472;      0;       ;       ;       ;       ;       ;        
04/03/2024; 15:54:47; 004;  24,76;   42,4;    470;      0;       ;       ;       ;       ;       ;        
04/03/2024; 15:55:47; 004;  24,81;   42,2;    468;      0;       ;       ;       ;       ;       ;        
04/03/2024; 15:56:47; 004;  24,87;   42,4;    467;      0;       ;       ;       ;       ;       ;        
04/03/2024; 15:57:47; 004;  24,84;   42,3;    479;     10;       ;       ;       ;       ;       ;        
04/03/2024; 15:58:47; 004;  24,87;   42,4;    479;     10;       ;       ;       ;       ;       ;        
04/03/2024; 15:59:47; 004;  24,83;   42,5;    486;     10;       ;       ;       ;       ;       ;        
04/03/2024; 16:00:47; 004;  24,84;   42,5;    506;      0;       ;       ;       ;       ;       ;        
04/03/2024; 16:01:47; 004;  24,90;   42,5;    504;      0;       ;       ;       ;       ;       ;        
04/03/2024; 16:02:47; 004;  24,94;   42,5;    505;      0;       ;       ;       ;       ;       ;        
04/03/2024; 16:03:47; 004;  24,98;   42,3;    502;      0;       ;       ;       ;       ;       ;        
04/03/2024; 16:04:47; 004;  25,00;   42,4;    499;      0;       ;       ;       ;       ;       ;        
04/03/2024; 16:05:47; 004;  24,91;   42,6;    505;      0;       ;       ;       ;       ;       ;        
04/03/2024; 16:06:47; 004;  24,81;   42,8;    530;      0;       ;       ;       ;       ;       ;        
04/03/2024; 16:07:47; 004;  24,91;   42,7;    519;      0;       ;       ;       ;       ;       ;        
04/03/2024; 16:08:47; 004;  24,88;   42,7;    504;      0;       ;       ;       ;       ;       ;        
04/03/2024; 16:09:47; 004;  24,91;   42,6;    490;     10;       ;       ;       ;       ;       ;        
04/03/2024; 16:10:47; 004;  24,87;   42,8;    491;     10;       ;       ;       ;       ;       ;        
04/03/2024; 16:11:47; 004;  24,86;   42,9;    502;     10;       ;       ;       ;       ;       ;        
04/03/2024; 16:12:47; 004;  24,88;   42,9;    507;     10;       ;       ;       ;       ;       ;        
04/03/2024; 16:13:47; 004;  24,93;   43,0;    505;     10;       ;       ;       ;       ;       ;        
04/03/2024; 16:14:47; 004;  24,91;   43,1;    509;     30;       ;       ;       ;       ;       ;        
04/03/2024; 16:15:47; 004;  24,70;   43,5;    534;     20;       ;       ;       ;       ;       ;        
04/03/2024; 16:16:47; 004;  24,65;   43,8;    557;     20;       ;       ;       ;       ;       ;        
04/03/2024; 16:17:47; 004;  24,65;   43,9;    571;     20;       ;       ;       ;       ;       ;        
04/03/2024; 16:18:47; 004;  24,60;   44,0;    573;     10;       ;       ;       ;       ;       ;        
04/03/2024; 16:19:47; 004;  24,56;   44,1;    572;     10;       ;       ;       ;       ;       ;        
04/03/2024; 16:20:47; 004;  24,56;   44,1;    568;     20;       ;       ;       ;       ;       ;        
04/03/2024; 16:21:47; 004;  24,40;   44,5;    565;     10;       ;       ;       ;       ;       ;        
04/03/2024; 16:22:47; 004;  24,50;   44,4;    589;     10;       ;       ;       ;       ;       ;        
04/03/2024; 16:23:47; 004;  24,67;   44,0;    582;     10;       ;       ;       ;       ;       ;        
04/03/2024; 16:24:47; 004;  24,65;   44,1;    567;     10;       ;       ;       ;       ;       ;        
04/03/2024; 16:25:47; 004;  24,62;   44,2;    576;      0;       ;       ;       ;       ;       ;        
04/03/2024; 16:26:47; 004;  24,59;   44,2;    580;      0;       ;       ;       ;       ;       ;        
04/03/2024; 16:27:47; 004;  24,55;   44,3;    579;      0;       ;       ;       ;       ;       ;        
04/03/2024; 16:28:47; 004;  24,59;   44,3;    584;      0;       ;       ;       ;       ;       ;        
04/03/2024; 16:29:47; 004;  24,62;   44,3;    587;      0;       ;       ;       ;       ;       ;        
04/03/2024; 16:30:47; 004;  24,57;   44,4;    589;      0;       ;       ;       ;       ;       ;        
04/03/2024; 16:31:47; 004;  24,57;   44,6;    604;      0;       ;       ;       ;       ;       ;        
04/03/2024; 16:32:47; 004;  24,43;   45,0;    630;      0;       ;       ;       ;       ;       ;        
04/03/2024; 16:33:47; 004;  23,95;   46,4;    725;      0;       ;       ;       ;       ;       ;        
04/03/2024; 16:34:47; 004;  23,83;   46,9;    762;      0;       ;       ;       ;       ;       ;        
04/03/2024; 16:35:47; 004;  23,89;   47,1;    818;      0;       ;       ;       ;       ;       ;        
04/03/2024; 16:36:47; 004;  23,89;   47,2;    839;      0;       ;       ;       ;       ;       ;        
04/03/2024; 16:37:47; 004;  23,84;   47,5;    875;      0;       ;       ;       ;       ;       ;        
04/03/2024; 16:38:47; 004;  23,73;   47,9;    914;      0;       ;       ;       ;       ;       ;        
04/03/2024; 16:39:47; 004;  23,73;   48,1;    937;      0;       ;       ;       ;       ;       ;        
04/03/2024; 16:40:47; 004;  23,65;   48,5;    945;      0;       ;       ;       ;       ;       ;        
04/03/2024; 16:41:48; 004;  23,73;   48,3;    956;      0;       ;       ;       ;       ;       ;        
04/03/2024; 16:42:47; 004;  23,94;   48,0;    959;      0;       ;       ;       ;       ;       ;        
04/03/2024; 16:43:48; 004;  24,27;   47,3;    875;      0;       ;       ;       ;       ;       ;        
04/03/2024; 16:44:47; 004;  24,49;   46,6;    857;      0;       ;       ;       ;       ;       ;        
04/03/2024; 16:45:48; 004;  24,52;   46,7;    824;      0;       ;       ;       ;       ;       ;        
04/03/2024; 16:46:47; 004;  24,52;   46,6;    825;      0;       ;       ;       ;       ;       ;        
04/03/2024; 16:47:47; 004;  24,35;   46,9;    839;      0;       ;       ;       ;       ;       ;        
04/03/2024; 16:48:47; 004;  24,40;   46,5;    816;      0;       ;       ;       ;       ;       ;        
04/03/2024; 16:49:47; 004;  24,08;   47,4;    804;      0;       ;       ;       ;       ;       ;        
04/03/2024; 16:50:47; 004;  23,69;   48,3;    843;      0;       ;       ;       ;       ;       ;        
04/03/2024; 16:51:47; 004;  23,50;   48,9;    876;      0;       ;       ;       ;       ;       ;        
04/03/2024; 16:52:47; 004;  23,19;   49,7;    909;      0;       ;       ;       ;       ;       ;        
04/03/2024; 16:53:48; 004;  23,19;   50,0;    936;      0;       ;       ;       ;       ;       ;        
04/03/2024; 16:54:47; 004;  22,99;   50,5;    976;      0;       ;       ;       ;       ;       ;        
04/03/2024; 16:55:47; 004;  22,97;   50,7;    993;      0;       ;       ;       ;       ;       ;        
04/03/2024; 16:56:47; 004;  22,66;   51,6;    993;     10;       ;       ;       ;       ;       ;        
04/03/2024; 16:57:48; 004;  22,63;   51,8;   1003;     10;       ;       ;       ;       ;       ;        
04/03/2024; 16:58:48; 004;  22,39;   52,6;   1049;     10;       ;       ;       ;       ;       ;        
04/03/2024; 16:59:47; 004;  22,21;   53,1;   1063;     10;       ;       ;       ;       ;       ;        
04/03/2024; 17:00:48; 004;  22,01;   53,7;   1066;     10;       ;       ;       ;       ;       ;        
04/03/2024; 17:01:48; 004;  21,81;   54,4;   1087;     20;       ;       ;       ;       ;       ;        
04/03/2024; 17:02:48; 004;  21,59;   55,1;   1123;     30;       ;       ;       ;       ;       ;        
04/03/2024; 17:03:48; 004;  21,46;   55,6;   1148;     30;       ;       ;       ;       ;       ;        
04/03/2024; 17:04:48; 004;  21,41;   56,1;   1185;     20;       ;       ;       ;       ;       ;        
04/03/2024; 17:05:48; 004;  21,22;   56,6;   1214;     10;       ;       ;       ;       ;       ;        
04/03/2024; 17:06:48; 004;  21,12;   57,0;   1235;     10;       ;       ;       ;       ;       ;        
04/03/2024; 17:07:48; 004;  21,08;   57,3;   1250;     10;       ;       ;       ;       ;       ;        
04/03/2024; 17:08:48; 004;  21,05;   57,6;   1293;     10;       ;       ;       ;       ;       ;        
04/03/2024; 17:09:48; 004;  20,97;   58,1;   1330;     20;       ;       ;       ;       ;       ;        
04/03/2024; 17:10:48; 004;  20,90;   58,3;   1350;     30;       ;       ;       ;       ;       ;        
04/03/2024; 17:11:48; 004;  20,88;   58,7;   1374;     30;       ;       ;       ;       ;       ;        
04/03/2024; 17:12:48; 004;  20,94;   58,9;   1416;     20;       ;       ;       ;       ;       ;        
04/03/2024; 17:13:48; 004;  20,87;   59,0;   1474;     30;       ;       ;       ;       ;       ;        
04/03/2024; 17:14:48; 004;  20,91;   59,2;   1484;     20;       ;       ;       ;       ;       ;        
04/03/2024; 17:15:48; 004;  20,94;   59,4;   1521;     10;       ;       ;       ;       ;       ;        
04/03/2024; 17:16:48; 004;  20,88;   59,6;   1580;     10;       ;       ;       ;       ;       ;        
04/03/2024; 17:17:48; 004;  20,78;   59,9;   1594;     20;       ;       ;       ;       ;       ;        
04/03/2024; 17:18:48; 004;  20,67;   60,3;   1580;     20;       ;       ;       ;       ;       ;        
04/03/2024; 17:19:48; 004;  20,58;   60,8;   1586;     20;       ;       ;       ;       ;       ;        
04/03/2024; 17:20:48; 004;  20,70;   60,5;   1604;     30;       ;       ;       ;       ;       ;        
04/03/2024; 17:21:48; 004;  20,64;   60,8;   1652;     20;       ;       ;       ;       ;       ;        
04/03/2024; 17:22:48; 004;  20,75;   60,6;   1705;     20;       ;       ;       ;       ;       ;        
04/03/2024; 17:23:48; 004;  20,61;   60,7;   1714;     20;       ;       ;       ;       ;       ;        
04/03/2024; 17:24:48; 004;  20,66;   60,7;   1613;     10;       ;       ;       ;       ;       ;        
04/03/2024; 17:25:48; 004;  20,67;   61,0;   1631;     20;       ;       ;       ;       ;       ;        
04/03/2024; 17:26:48; 004;  20,70;   61,0;   1701;     20;       ;       ;       ;       ;       ;        
04/03/2024; 17:27:48; 004;  20,70;   61,2;   1720;     20;       ;       ;       ;       ;       ;        
04/03/2024; 17:28:48; 004;  20,68;   61,3;   1758;     20;       ;       ;       ;       ;       ;        
04/03/2024; 17:29:48; 004;  20,67;   61,4;   1765;     20;       ;       ;       ;       ;       ;        
04/03/2024; 17:30:48; 004;  20,62;   61,6;   1761;     20;       ;       ;       ;       ;       ;        
04/03/2024; 17:31:48; 004;  20,64;   61,6;   1761;     20;       ;       ;       ;       ;       ;        
04/03/2024; 17:32:48; 004;  20,66;   61,6;   1775;     20;       ;       ;       ;       ;       ;        
04/03/2024; 17:33:00;    ;       ;       ;       ;       ;       ;       ;       ;       ;       ;       
04/03/2024; 17:34:48; 004;  20,64;   61,8;   1789;     20;       ;       ;       ;       ;       ;        
04/03/2024; 17:35:48; 004;  20,62;   61,9;   1763;     20;       ;       ;       ;       ;       ;        
04/03/2024; 17:36:48; 004;  20,67;   61,7;   1759;     10;       ;       ;       ;       ;       ;        
04/03/2024; 17:37:48; 004;  20,70;   61,8;   1784;     20;       ;       ;       ;       ;       ;        
04/03/2024; 17:38:48; 004;  20,71;   61,9;   1798;     10;       ;       ;       ;       ;       ;        
04/03/2024; 17:39:48; 004;  20,68;   61,9;   1829;     10;       ;       ;       ;       ;       ;        
04/03/2024; 17:40:48; 004;  20,64;   62,1;   1825;     10;       ;       ;       ;       ;       ;        
04/03/2024; 17:41:48; 004;  20,66;   62,1;   1827;     10;       ;       ;       ;       ;       ;        
04/03/2024; 17:42:48; 004;  20,67;   62,2;   1844;     10;       ;       ;       ;       ;       ;        
04/03/2024; 17:43:48; 004;  20,73;   62,2;   1869;      0;       ;       ;       ;       ;       ;        
04/03/2024; 17:44:48; 004;  20,73;   62,2;   1872;      0;       ;       ;       ;       ;       ;        
04/03/2024; 17:45:48; 004;  20,74;   62,2;   1861;      0;       ;       ;       ;       ;       ;        
04/03/2024; 17:46:48; 004;  20,88;   62,0;   1866;      0;       ;       ;       ;       ;       ;        
04/03/2024; 17:47:48; 004;  20,90;   61,8;   1869;      0;       ;       ;       ;       ;       ;        
04/03/2024; 17:48:48; 004;  20,84;   62,0;   1860;      0;       ;       ;       ;       ;       ;        
04/03/2024; 17:49:48; 004;  20,73;   62,2;   1888;      0;       ;       ;       ;       ;       ;        
04/03/2024; 17:50:48; 004;  20,75;   62,2;   1871;      0;       ;       ;       ;       ;       ;        
04/03/2024; 17:51:48; 004;  20,78;   62,2;   1877;      0;       ;       ;       ;       ;       ;        
04/03/2024; 17:52:00;    ;       ;       ;       ;       ;       ;       ;       ;       ;       ;       
04/03/2024; 17:53:00;    ;       ;       ;       ;       ;       ;       ;       ;       ;       ;       
04/03/2024; 17:54:00;    ;       ;       ;       ;       ;       ;       ;       ;       ;       ;       
04/03/2024; 17:55:00;    ;       ;       ;       ;       ;       ;       ;       ;       ;       ;       
04/03/2024; 17:56:00;    ;       ;       ;       ;       ;       ;       ;       ;       ;       ;       
04/03/2024; 17:57:00;    ;       ;       ;       ;       ;       ;       ;       ;       ;       ;       
04/03/2024; 17:58:00;    ;       ;       ;       ;       ;       ;       ;       ;       ;       ;       
04/03/2024; 17:59:00;    ;       ;       ;       ;       ;       ;       ;       ;       ;       ;       
04/03/2024; 18:00:00;    ;       ;       ;       ;       ;       ;       ;       ;       ;       ;       
04/03/2024; 18:01:00;    ;       ;       ;       ;       ;       ;       ;       ;       ;       ;       
04/03/2024; 18:02:00;    ;       ;       ;       ;       ;       ;       ;       ;       ;       ;       
04/03/2024; 18:03:00;    ;       ;       ;       ;       ;       ;       ;       ;       ;       ;       
04/03/2024; 18:04:00;    ;       ;       ;       ;       ;       ;       ;       ;       ;       ;       
04/03/2024; 18:05:00;    ;       ;       ;       ;       ;       ;       ;       ;       ;       ;       
04/03/2024; 18:06:00;    ;       ;       ;       ;       ;       ;       ;       ;       ;       ;       
04/03/2024; 18:07:00;    ;       ;       ;       ;       ;       ;       ;       ;       ;       ;       
04/03/2024; 18:08:00;    ;       ;       ;       ;       ;       ;       ;       ;       ;       ;       
04/03/2024; 18:09:00;    ;       ;       ;       ;       ;       ;       ;       ;       ;       ;       
04/03/2024; 18:10:00;    ;       ;       ;       ;       ;       ;       ;       ;       ;       ;       
04/03/2024; 18:11:00;    ;       ;       ;       ;       ;       ;       ;       ;       ;       ;       
04/03/2024; 18:12:00;    ;       ;       ;       ;       ;       ;       ;       ;       ;       ;       
04/03/2024; 18:13:00;    ;       ;       ;       ;       ;       ;       ;       ;       ;       ;       
04/03/2024; 18:14:00;    ;       ;       ;       ;       ;       ;       ;       ;       ;       ;       
04/03/2024; 18:15:00;    ;       ;       ;       ;       ;       ;       ;       ;       ;       ;       
04/03/2024; 18:16:00;    ;       ;       ;       ;       ;       ;       ;       ;       ;       ;       
04/03/2024; 18:17:00;    ;       ;       ;       ;       ;       ;       ;       ;       ;       ;       
04/03/2024; 18:18:00;    ;       ;       ;       ;       ;       ;       ;       ;       ;       ;       
04/03/2024; 18:19:00;    ;       ;       ;       ;       ;       ;       ;       ;       ;       ;       
04/03/2024; 18:20:00;    ;       ;       ;       ;       ;       ;       ;       ;       ;       ;       
04/03/2024; 18:21:00;    ;       ;       ;       ;       ;       ;       ;       ;       ;       ;       
04/03/2024; 18:22:00;    ;       ;       ;       ;       ;       ;       ;       ;       ;       ;       
04/03/2024; 18:23:00;    ;       ;       ;       ;       ;       ;       ;       ;       ;       ;       
04/03/2024; 18:24:00;    ;       ;       ;       ;       ;       ;       ;       ;       ;       ;       
04/03/2024; 18:25:00;    ;       ;       ;       ;       ;       ;       ;       ;       ;       ;       
04/03/2024; 18:26:00;    ;       ;       ;       ;       ;       ;       ;       ;       ;       ;       
04/03/2024; 18:27:00;    ;       ;       ;       ;       ;       ;       ;       ;       ;       ;       
04/03/2024; 18:28:00;    ;       ;       ;       ;       ;       ;       ;       ;       ;       ;       
04/03/2024; 18:29:00;    ;       ;       ;       ;       ;       ;       ;       ;       ;       ;       
04/03/2024; 18:30:00;    ;       ;       ;       ;       ;       ;       ;       ;       ;       ;       
04/03/2024; 18:31:00;    ;       ;       ;       ;       ;       ;       ;       ;       ;       ;       
04/03/2024; 18:32:00;    ;       ;       ;       ;       ;       ;       ;       ;       ;       ;       
04/03/2024; 18:33:00;    ;       ;       ;       ;       ;       ;       ;       ;       ;       ;       
04/03/2024; 18:34:00;    ;       ;       ;       ;       ;       ;       ;       ;       ;       ;       
04/03/2024; 18:35:00;    ;       ;       ;       ;       ;       ;       ;       ;       ;       ;       
04/03/2024; 18:36:00;    ;       ;       ;       ;       ;       ;       ;       ;       ;       ;       
04/03/2024; 18:37:00;    ;       ;       ;       ;       ;       ;       ;       ;       ;       ;       
04/03/2024; 18:38:00;    ;       ;       ;       ;       ;       ;       ;       ;       ;       ;       
04/03/2024; 18:39:00;    ;       ;       ;       ;       ;       ;       ;       ;       ;       ;       
04/03/2024; 18:40:00;    ;       ;       ;       ;       ;       ;       ;       ;       ;       ;       
04/03/2024; 18:41:00;    ;       ;       ;       ;       ;       ;       ;       ;       ;       ;       
04/03/2024; 18:42:00;    ;       ;       ;       ;       ;       ;       ;       ;       ;       ;       
04/03/2024; 18:43:00;    ;       ;       ;       ;       ;       ;       ;       ;       ;       ;       
04/03/2024; 18:44:00;    ;       ;       ;       ;       ;       ;       ;       ;       ;       ;       
04/03/2024; 18:45:00;    ;       ;       ;       ;       ;       ;       ;       ;       ;       ;       
04/03/2024; 18:46:00;    ;       ;       ;       ;       ;       ;       ;       ;       ;       ;       
04/03/2024; 18:47:00;    ;       ;       ;       ;       ;       ;       ;       ;       ;       ;       
04/03/2024; 18:48:00;    ;       ;       ;       ;       ;       ;       ;       ;       ;       ;       
04/03/2024; 18:49:00;    ;       ;       ;       ;       ;       ;       ;       ;       ;       ;       
04/03/2024; 18:50:00;    ;       ;       ;       ;       ;       ;       ;       ;       ;       ;       
04/03/2024; 18:51:00;    ;       ;       ;       ;       ;       ;       ;       ;       ;       ;       
04/03/2024; 18:52:00;    ;       ;       ;       ;       ;       ;       ;       ;       ;       ;       
04/03/2024; 18:53:00;    ;       ;       ;       ;       ;       ;       ;       ;       ;       ;       
04/03/2024; 18:54:00;    ;       ;       ;       ;       ;       ;       ;       ;       ;       ;       
04/03/2024; 18:55:00;    ;       ;       ;       ;       ;       ;       ;       ;       ;       ;       
04/03/2024; 18:56:00;    ;       ;       ;       ;       ;       ;       ;       ;       ;       ;       
04/03/2024; 18:57:00;    ;       ;       ;       ;       ;       ;       ;       ;       ;       ;       
04/03/2024; 18:58:00;    ;       ;       ;       ;       ;       ;       ;       ;       ;       ;       
04/03/2024; 18:59:00;    ;       ;       ;       ;       ;       ;       ;       ;       ;       ;       
04/03/2024; 19:00:00;    ;       ;       ;       ;       ;       ;       ;       ;       ;       ;       
04/03/2024; 19:01:00;    ;       ;       ;       ;       ;       ;       ;       ;       ;       ;       
04/03/2024; 19:02:00;    ;       ;       ;       ;       ;       ;       ;       ;       ;       ;       
04/03/2024; 19:03:00;    ;       ;       ;       ;       ;       ;       ;       ;       ;       ;       
04/03/2024; 19:04:00;    ;       ;       ;       ;       ;       ;       ;       ;       ;       ;       
04/03/2024; 19:05:00;    ;       ;       ;       ;       ;       ;       ;       ;       ;       ;       
04/03/2024; 19:06:00;    ;       ;       ;       ;       ;       ;       ;       ;       ;       ;       
04/03/2024; 19:07:00;    ;       ;       ;       ;       ;       ;       ;       ;       ;       ;       
04/03/2024; 19:08:00;    ;       ;       ;       ;       ;       ;       ;       ;       ;       ;       
04/03/2024; 19:09:00;    ;       ;       ;       ;       ;       ;       ;       ;       ;       ;       
04/03/2024; 19:10:00;    ;       ;       ;       ;       ;       ;       ;       ;       ;       ;       
04/03/2024; 19:11:00;    ;       ;       ;       ;       ;       ;       ;       ;       ;       ;       
04/03/2024; 19:12:00;    ;       ;       ;       ;       ;       ;       ;       ;       ;       ;       
04/03/2024; 19:13:00;    ;       ;       ;       ;       ;       ;       ;       ;       ;       ;       
04/03/2024; 19:14:00;    ;       ;       ;       ;       ;       ;       ;       ;       ;       ;       
04/03/2024; 19:15:00;    ;       ;       ;       ;       ;       ;       ;       ;       ;       ;       
04/03/2024; 19:16:00;    ;       ;       ;       ;       ;       ;       ;       ;       ;       ;       
04/03/2024; 19:17:00;    ;       ;       ;       ;       ;       ;       ;       ;       ;       ;       
04/03/2024; 19:18:00;    ;       ;       ;       ;       ;       ;       ;       ;       ;       ;       
04/03/2024; 19:19:00;    ;       ;       ;       ;       ;       ;       ;       ;       ;       ;       
04/03/2024; 19:20:00;    ;       ;       ;       ;       ;       ;       ;       ;       ;       ;       
04/03/2024; 19:21:00;    ;       ;       ;       ;       ;       ;       ;       ;       ;       ;       
04/03/2024; 19:22:00;    ;       ;       ;       ;       ;       ;       ;       ;       ;       ;       
04/03/2024; 19:23:00;    ;       ;       ;       ;       ;       ;       ;       ;       ;       ;       
04/03/2024; 19:24:00;    ;       ;       ;       ;       ;       ;       ;       ;       ;       ;       
04/03/2024; 19:25:00;    ;       ;       ;       ;       ;       ;       ;       ;       ;       ;       
04/03/2024; 19:26:00;    ;       ;       ;       ;       ;       ;       ;       ;       ;       ;       
04/03/2024; 19:27:00;    ;       ;       ;       ;       ;       ;       ;       ;       ;       ;       
04/03/2024; 19:28:00;    ;       ;       ;       ;       ;       ;       ;       ;       ;       ;       
04/03/2024; 19:29:00;    ;       ;       ;       ;       ;       ;       ;       ;       ;       ;       
04/03/2024; 19:30:00;    ;       ;       ;       ;       ;       ;       ;       ;       ;       ;       
04/03/2024; 19:31:00;    ;       ;       ;       ;       ;       ;       ;       ;       ;       ;       
04/03/2024; 19:32:00;    ;       ;       ;       ;       ;       ;       ;       ;       ;       ;       
04/03/2024; 19:33:00;    ;       ;       ;       ;       ;       ;       ;       ;       ;       ;       
04/03/2024; 19:34:00;    ;       ;       ;       ;       ;       ;       ;       ;       ;       ;       
04/03/2024; 19:35:00;    ;       ;       ;       ;       ;       ;       ;       ;       ;       ;       
04/03/2024; 19:36:00;    ;       ;       ;       ;       ;       ;       ;       ;       ;       ;       
04/03/2024; 19:37:00;    ;       ;       ;       ;       ;       ;       ;       ;       ;       ;       
04/03/2024; 19:38:00;    ;       ;       ;       ;       ;       ;       ;       ;       ;       ;       
04/03/2024; 19:39:00;    ;       ;       ;       ;       ;       ;       ;       ;       ;       ;       
04/03/2024; 19:40:00;    ;       ;       ;       ;       ;       ;       ;       ;       ;       ;       
04/03/2024; 19:41:00;    ;       ;       ;       ;       ;       ;       ;       ;       ;       ;       
04/03/2024; 19:42:00;    ;       ;       ;       ;       ;       ;       ;       ;       ;       ;       
04/03/2024; 19:43:00;    ;       ;       ;       ;       ;       ;       ;       ;       ;       ;       
04/03/2024; 19:44:00;    ;       ;       ;       ;       ;       ;       ;       ;       ;       ;       
04/03/2024; 19:45:00;    ;       ;       ;       ;       ;       ;       ;       ;       ;       ;       
04/03/2024; 19:46:00;    ;       ;       ;       ;       ;       ;       ;       ;       ;       ;       
04/03/2024; 19:47:00;    ;       ;       ;       ;       ;       ;       ;       ;       ;       ;       
04/03/2024; 19:48:00;    ;       ;       ;       ;       ;       ;       ;       ;       ;       ;       
04/03/2024; 19:49:00;    ;       ;       ;       ;       ;       ;       ;       ;       ;       ;       
04/03/2024; 19:50:00;    ;       ;       ;       ;       ;       ;       ;       ;       ;       ;       
04/03/2024; 19:51:00;    ;       ;       ;       ;       ;       ;       ;       ;       ;       ;       
04/03/2024; 19:52:00;    ;       ;       ;       ;       ;       ;       ;       ;       ;       ;       
04/03/2024; 19:53:00;    ;       ;       ;       ;       ;       ;       ;       ;       ;       ;       
04/03/2024; 19:54:00;    ;       ;       ;       ;       ;       ;       ;       ;       ;       ;       
04/03/2024; 19:55:00;    ;       ;       ;       ;       ;       ;       ;       ;       ;       ;       
04/03/2024; 19:56:00;    ;       ;       ;       ;       ;       ;       ;       ;       ;       ;       
04/03/2024; 19:57:00;    ;       ;       ;       ;       ;       ;       ;       ;       ;       ;       
04/03/2024; 19:58:00;    ;       ;       ;       ;       ;       ;       ;       ;       ;       ;       
04/03/2024; 19:59:00;    ;       ;       ;       ;       ;       ;       ;       ;       ;       ;       
04/03/2024; 20:00:00;    ;       ;       ;       ;       ;       ;       ;       ;       ;       ;       
04/03/2024; 20:01:00;    ;       ;       ;       ;       ;       ;       ;       ;       ;       ;       
04/03/2024; 20:02:00;    ;       ;       ;       ;       ;       ;       ;       ;       ;       ;       
04/03/2024; 20:03:00;    ;       ;       ;       ;       ;       ;       ;       ;       ;       ;       
04/03/2024; 20:04:00;    ;       ;       ;       ;       ;       ;       ;       ;       ;       ;       
04/03/2024; 20:05:00;    ;       ;       ;       ;       ;       ;       ;       ;       ;       ;       
04/03/2024; 20:06:00;    ;       ;       ;       ;       ;       ;       ;       ;       ;       ;       
04/03/2024; 20:07:00;    ;       ;       ;       ;       ;       ;       ;       ;       ;       ;       
04/03/2024; 20:08:00;    ;       ;       ;       ;       ;       ;       ;       ;       ;       ;       
04/03/2024; 20:09:00;    ;       ;       ;       ;       ;       ;       ;       ;       ;       ;       
04/03/2024; 20:10:00;    ;       ;       ;       ;       ;       ;       ;       ;       ;       ;       
04/03/2024; 20:11:00;    ;       ;       ;       ;       ;       ;       ;       ;       ;       ;       
04/03/2024; 20:12:00;    ;       ;       ;       ;       ;       ;       ;       ;       ;       ;       
04/03/2024; 20:13:00;    ;       ;       ;       ;       ;       ;       ;       ;       ;       ;       
04/03/2024; 20:14:00;    ;       ;       ;       ;       ;       ;       ;       ;       ;       ;       
04/03/2024; 20:15:00;    ;       ;       ;       ;       ;       ;       ;       ;       ;       ;       
04/03/2024; 20:16:00;    ;       ;       ;       ;       ;       ;       ;       ;       ;       ;       
04/03/2024; 20:17:00;    ;       ;       ;       ;       ;       ;       ;       ;       ;       ;       
04/03/2024; 20:18:00;    ;       ;       ;       ;       ;       ;       ;       ;       ;       ;       
04/03/2024; 20:19:00;    ;       ;       ;       ;       ;       ;       ;       ;       ;       ;       
04/03/2024; 20:20:00;    ;       ;       ;       ;       ;       ;       ;       ;       ;       ;       
04/03/2024; 20:21:00;    ;       ;       ;       ;       ;       ;       ;       ;       ;       ;       
04/03/2024; 20:22:00;    ;       ;       ;       ;       ;       ;       ;       ;       ;       ;       
04/03/2024; 20:23:00;    ;       ;       ;       ;       ;       ;       ;       ;       ;       ;       
04/03/2024; 20:24:00;    ;       ;       ;       ;       ;       ;       ;       ;       ;       ;       
04/03/2024; 20:25:00;    ;       ;       ;       ;       ;       ;       ;       ;       ;       ;       
04/03/2024; 20:26:00;    ;       ;       ;       ;       ;       ;       ;       ;       ;       ;       
04/03/2024; 20:27:00;    ;       ;       ;       ;       ;       ;       ;       ;       ;       ;       
04/03/2024; 20:28:00;    ;       ;       ;       ;       ;       ;       ;       ;       ;       ;       
04/03/2024; 20:29:00;    ;       ;       ;       ;       ;       ;       ;       ;       ;       ;       
04/03/2024; 20:30:00;    ;       ;       ;       ;       ;       ;       ;       ;       ;       ;       
04/03/2024; 20:31:00;    ;       ;       ;       ;       ;       ;       ;       ;       ;       ;       
04/03/2024; 20:32:00;    ;       ;       ;       ;       ;       ;       ;       ;       ;       ;       
04/03/2024; 20:33:00;    ;       ;       ;       ;       ;       ;       ;       ;       ;       ;       
04/03/2024; 20:34:00;    ;       ;       ;       ;       ;       ;       ;       ;       ;       ;       
04/03/2024; 20:35:00;    ;       ;       ;       ;       ;       ;       ;       ;       ;       ;       
04/03/2024; 20:36:00;    ;       ;       ;       ;       ;       ;       ;       ;       ;       ;       
04/03/2024; 20:37:00;    ;       ;       ;       ;       ;       ;       ;       ;       ;       ;       
04/03/2024; 20:38:00;    ;       ;       ;       ;       ;       ;       ;       ;       ;       ;       
04/03/2024; 20:39:00;    ;       ;       ;       ;       ;       ;       ;       ;       ;       ;       
04/03/2024; 20:40:00;    ;       ;       ;       ;       ;       ;       ;       ;       ;       ;       
04/03/2024; 20:41:00;    ;       ;       ;       ;       ;       ;       ;       ;       ;       ;       
04/03/2024; 20:42:00;    ;       ;       ;       ;       ;       ;       ;       ;       ;       ;       
04/03/2024; 20:43:00;    ;       ;       ;       ;       ;       ;       ;       ;       ;       ;       
04/03/2024; 20:44:00;    ;       ;       ;       ;       ;       ;       ;       ;       ;       ;       
04/03/2024; 20:45:00;    ;       ;       ;       ;       ;       ;       ;       ;       ;       ;       
04/03/2024; 20:46:00;    ;       ;       ;       ;       ;       ;       ;       ;       ;       ;       
04/03/2024; 20:47:00;    ;       ;       ;       ;       ;       ;       ;       ;       ;       ;       
04/03/2024; 20:48:00;    ;       ;       ;       ;       ;       ;       ;       ;       ;       ;       
04/03/2024; 20:49:00;    ;       ;       ;       ;       ;       ;       ;       ;       ;       ;       
04/03/2024; 20:50:00;    ;       ;       ;       ;       ;       ;       ;       ;       ;       ;       
04/03/2024; 20:51:00;    ;       ;       ;       ;       ;       ;       ;       ;       ;       ;       
04/03/2024; 20:52:00;    ;       ;       ;       ;       ;       ;       ;       ;       ;       ;       
04/03/2024; 20:53:00;    ;       ;       ;       ;       ;       ;       ;       ;       ;       ;       
04/03/2024; 20:54:00;    ;       ;       ;       ;       ;       ;       ;       ;       ;       ;       
04/03/2024; 20:55:00;    ;       ;       ;       ;       ;       ;       ;       ;       ;       ;       
04/03/2024; 20:56:00;    ;       ;       ;       ;       ;       ;       ;       ;       ;       ;       
04/03/2024; 20:57:00;    ;       ;       ;       ;       ;       ;       ;       ;       ;       ;       
04/03/2024; 20:58:00;    ;       ;       ;       ;       ;       ;       ;       ;       ;       ;       
04/03/2024; 20:59:00;    ;       ;       ;       ;       ;       ;       ;       ;       ;       ;       
04/03/2024; 21:00:00;    ;       ;       ;       ;       ;       ;       ;       ;       ;       ;       
04/03/2024; 21:01:00;    ;       ;       ;       ;       ;       ;       ;       ;       ;       ;       
04/03/2024; 21:02:00;    ;       ;       ;       ;       ;       ;       ;       ;       ;       ;       
04/03/2024; 21:03:00;    ;       ;       ;       ;       ;       ;       ;       ;       ;       ;       
04/03/2024; 21:04:00;    ;       ;       ;       ;       ;       ;       ;       ;       ;       ;       
04/03/2024; 21:05:00;    ;       ;       ;       ;       ;       ;       ;       ;       ;       ;       
04/03/2024; 21:06:00;    ;       ;       ;       ;       ;       ;       ;       ;       ;       ;       
04/03/2024; 21:07:00;    ;       ;       ;       ;       ;       ;       ;       ;       ;       ;       
04/03/2024; 21:08:00;    ;       ;       ;       ;       ;       ;       ;       ;       ;       ;       
04/03/2024; 21:09:00;    ;       ;       ;       ;       ;       ;       ;       ;       ;       ;       
04/03/2024; 21:10:00;    ;       ;       ;       ;       ;       ;       ;       ;       ;       ;       
04/03/2024; 21:11:00;    ;       ;       ;       ;       ;       ;       ;       ;       ;       ;       
04/03/2024; 21:12:00;    ;       ;       ;       ;       ;       ;       ;       ;       ;       ;       
04/03/2024; 21:13:00;    ;       ;       ;       ;       ;       ;       ;       ;       ;       ;       
04/03/2024; 21:14:00;    ;       ;       ;       ;       ;       ;       ;       ;       ;       ;       
04/03/2024; 21:15:00;    ;       ;       ;       ;       ;       ;       ;       ;       ;       ;       
04/03/2024; 21:16:00;    ;       ;       ;       ;       ;       ;       ;       ;       ;       ;       
04/03/2024; 21:17:00;    ;       ;       ;       ;       ;       ;       ;       ;       ;       ;       
04/03/2024; 21:18:00;    ;       ;       ;       ;       ;       ;       ;       ;       ;       ;       
04/03/2024; 21:19:00;    ;       ;       ;       ;       ;       ;       ;       ;       ;       ;       
04/03/2024; 21:20:00;    ;       ;       ;       ;       ;       ;       ;       ;       ;       ;       
04/03/2024; 21:21:00;    ;       ;       ;       ;       ;       ;       ;       ;       ;       ;       
04/03/2024; 21:22:00;    ;       ;       ;       ;       ;       ;       ;       ;       ;       ;       
04/03/2024; 21:23:00;    ;       ;       ;       ;       ;       ;       ;       ;       ;       ;       
04/03/2024; 21:24:00;    ;       ;       ;       ;       ;       ;       ;       ;       ;       ;       
04/03/2024; 21:25:00;    ;       ;       ;       ;       ;       ;       ;       ;       ;       ;       
04/03/2024; 21:26:00;    ;       ;       ;       ;       ;       ;       ;       ;       ;       ;       
04/03/2024; 21:27:00;    ;       ;       ;       ;       ;       ;       ;       ;       ;       ;       
04/03/2024; 21:28:00;    ;       ;       ;       ;       ;       ;       ;       ;       ;       ;       
04/03/2024; 21:29:00;    ;       ;       ;       ;       ;       ;       ;       ;       ;       ;       
04/03/2024; 21:30:00;    ;       ;       ;       ;       ;       ;       ;       ;       ;       ;       
04/03/2024; 21:31:00;    ;       ;       ;       ;       ;       ;       ;       ;       ;       ;       
04/03/2024; 21:32:00;    ;       ;       ;       ;       ;       ;       ;       ;       ;       ;       
04/03/2024; 21:33:00;    ;       ;       ;       ;       ;       ;       ;       ;       ;       ;       
04/03/2024; 21:34:00;    ;       ;       ;       ;       ;       ;       ;       ;       ;       ;       
04/03/2024; 21:35:00;    ;       ;       ;       ;       ;       ;       ;       ;       ;       ;       
04/03/2024; 21:36:00;    ;       ;       ;       ;       ;       ;       ;       ;       ;       ;       
04/03/2024; 21:37:00;    ;       ;       ;       ;       ;       ;       ;       ;       ;       ;       
04/03/2024; 21:38:00;    ;       ;       ;       ;       ;       ;       ;       ;       ;       ;       
04/03/2024; 21:39:00;    ;       ;       ;       ;       ;       ;       ;       ;       ;       ;       
04/03/2024; 21:40:00;    ;       ;       ;       ;       ;       ;       ;       ;       ;       ;       
04/03/2024; 21:41:00;    ;       ;       ;       ;       ;       ;       ;       ;       ;       ;       
04/03/2024; 21:42:00;    ;       ;       ;       ;       ;       ;       ;       ;       ;       ;       
04/03/2024; 21:43:00;    ;       ;       ;       ;       ;       ;       ;       ;       ;       ;       
04/03/2024; 21:44:00;    ;       ;       ;       ;       ;       ;       ;       ;       ;       ;       
04/03/2024; 21:45:00;    ;       ;       ;       ;       ;       ;       ;       ;       ;       ;       
04/03/2024; 21:46:00;    ;       ;       ;       ;       ;       ;       ;       ;       ;       ;       
04/03/2024; 21:47:00;    ;       ;       ;       ;       ;       ;       ;       ;       ;       ;       
04/03/2024; 21:48:00;    ;       ;       ;       ;       ;       ;       ;       ;       ;       ;       
04/03/2024; 21:49:00;    ;       ;       ;       ;       ;       ;       ;       ;       ;       ;       
04/03/2024; 21:50:00;    ;       ;       ;       ;       ;       ;       ;       ;       ;       ;       
04/03/2024; 21:51:00;    ;       ;       ;       ;       ;       ;       ;       ;       ;       ;       
04/03/2024; 21:52:00;    ;       ;       ;       ;       ;       ;       ;       ;       ;       ;       
04/03/2024; 21:53:00;    ;       ;       ;       ;       ;       ;       ;       ;       ;       ;       
04/03/2024; 21:54:00;    ;       ;       ;       ;       ;       ;       ;       ;       ;       ;       
04/03/2024; 21:55:00;    ;       ;       ;       ;       ;       ;       ;       ;       ;       ;       
04/03/2024; 21:56:00;    ;       ;       ;       ;       ;       ;       ;       ;       ;       ;       
04/03/2024; 21:57:00;    ;       ;       ;       ;       ;       ;       ;       ;       ;       ;       
04/03/2024; 21:58:00;    ;       ;       ;       ;       ;       ;       ;       ;       ;       ;       
04/03/2024; 21:59:00;    ;       ;       ;       ;       ;       ;       ;       ;       ;       ;       
04/03/2024; 22:00:00;    ;       ;       ;       ;       ;       ;       ;       ;       ;       ;       
04/03/2024; 22:01:00;    ;       ;       ;       ;       ;       ;       ;       ;       ;       ;       
04/03/2024; 22:02:00;    ;       ;       ;       ;       ;       ;       ;       ;       ;       ;       
04/03/2024; 22:03:00;    ;       ;       ;       ;       ;       ;       ;       ;       ;       ;       
04/03/2024; 22:04:00;    ;       ;       ;       ;       ;       ;       ;       ;       ;       ;       
04/03/2024; 22:05:00;    ;       ;       ;       ;       ;       ;       ;       ;       ;       ;       
04/03/2024; 22:06:00;    ;       ;       ;       ;       ;       ;       ;       ;       ;       ;       
04/03/2024; 22:07:00;    ;       ;       ;       ;       ;       ;       ;       ;       ;       ;       
04/03/2024; 22:08:00;    ;       ;       ;       ;       ;       ;       ;       ;       ;       ;       
04/03/2024; 22:09:00;    ;       ;       ;       ;       ;       ;       ;       ;       ;       ;       
04/03/2024; 22:10:00;    ;       ;       ;       ;       ;       ;       ;       ;       ;       ;       
04/03/2024; 22:11:00;    ;       ;       ;       ;       ;       ;       ;       ;       ;       ;       
04/03/2024; 22:12:00;    ;       ;       ;       ;       ;       ;       ;       ;       ;       ;       
04/03/2024; 22:13:00;    ;       ;       ;       ;       ;       ;       ;       ;       ;       ;       
04/03/2024; 22:14:00;    ;       ;       ;       ;       ;       ;       ;       ;       ;       ;       
04/03/2024; 22:15:00;    ;       ;       ;       ;       ;       ;       ;       ;       ;       ;       
04/03/2024; 22:16:00;    ;       ;       ;       ;       ;       ;       ;       ;       ;       ;       
04/03/2024; 22:17:00;    ;       ;       ;       ;       ;       ;       ;       ;       ;       ;       
04/03/2024; 22:18:00;    ;       ;       ;       ;       ;       ;       ;       ;       ;       ;       
04/03/2024; 22:19:00;    ;       ;       ;       ;       ;       ;       ;       ;       ;       ;       
04/03/2024; 22:20:00;    ;       ;       ;       ;       ;       ;       ;       ;       ;       ;       
04/03/2024; 22:21:00;    ;       ;       ;       ;       ;       ;       ;       ;       ;       ;       
04/03/2024; 22:22:00;    ;       ;       ;       ;       ;       ;       ;       ;       ;       ;       
04/03/2024; 22:23:00;    ;       ;       ;       ;       ;       ;       ;       ;       ;       ;       
04/03/2024; 22:24:00;    ;       ;       ;       ;       ;       ;       ;       ;       ;       ;       
04/03/2024; 22:25:00;    ;       ;       ;       ;       ;       ;       ;       ;       ;       ;       
04/03/2024; 22:26:00;    ;       ;       ;       ;       ;       ;       ;       ;       ;       ;       
04/03/2024; 22:27:00;    ;       ;       ;       ;       ;       ;       ;       ;       ;       ;       
04/03/2024; 22:28:00;    ;       ;       ;       ;       ;       ;       ;       ;       ;       ;       
04/03/2024; 22:29:00;    ;       ;       ;       ;       ;       ;       ;       ;       ;       ;       
04/03/2024; 22:30:00;    ;       ;       ;       ;       ;       ;       ;       ;       ;       ;       
04/03/2024; 22:31:00;    ;       ;       ;       ;       ;       ;       ;       ;       ;       ;       
04/03/2024; 22:32:00;    ;       ;       ;       ;       ;       ;       ;       ;       ;       ;       
04/03/2024; 22:33:00;    ;       ;       ;       ;       ;       ;       ;       ;       ;       ;       
04/03/2024; 22:34:00;    ;       ;       ;       ;       ;       ;       ;       ;       ;       ;       
04/03/2024; 22:35:00;    ;       ;       ;       ;       ;       ;       ;       ;       ;       ;       
04/03/2024; 22:36:00;    ;       ;       ;       ;       ;       ;       ;       ;       ;       ;       
04/03/2024; 22:37:00;    ;       ;       ;       ;       ;       ;       ;       ;       ;       ;       
04/03/2024; 22:38:00;    ;       ;       ;       ;       ;       ;       ;       ;       ;       ;       
04/03/2024; 22:39:00;    ;       ;       ;       ;       ;       ;       ;       ;       ;       ;       
04/03/2024; 22:40:00;    ;       ;       ;       ;       ;       ;       ;       ;       ;       ;       
04/03/2024; 22:41:00;    ;       ;       ;       ;       ;       ;       ;       ;       ;       ;       
04/03/2024; 22:42:00;    ;       ;       ;       ;       ;       ;       ;       ;       ;       ;       
04/03/2024; 22:43:00;    ;       ;       ;       ;       ;       ;       ;       ;       ;       ;       
04/03/2024; 22:44:00;    ;       ;       ;       ;       ;       ;       ;       ;       ;       ;       
04/03/2024; 22:45:00;    ;       ;       ;       ;       ;       ;       ;       ;       ;       ;       
04/03/2024; 22:46:00;    ;       ;       ;       ;       ;       ;       ;       ;       ;       ;       
04/03/2024; 22:47:00;    ;       ;       ;       ;       ;       ;       ;       ;       ;       ;       
04/03/2024; 22:48:00;    ;       ;       ;       ;       ;       ;       ;       ;       ;       ;       
04/03/2024; 22:49:00;    ;       ;       ;       ;       ;       ;       ;       ;       ;       ;       
04/03/2024; 22:50:00;    ;       ;       ;       ;       ;       ;       ;       ;       ;       ;       
04/03/2024; 22:51:00;    ;       ;       ;       ;       ;       ;       ;       ;       ;       ;       
04/03/2024; 22:52:00;    ;       ;       ;       ;       ;       ;       ;       ;       ;       ;       
04/03/2024; 22:53:00;    ;       ;       ;       ;       ;       ;       ;       ;       ;       ;       
04/03/2024; 22:54:00;    ;       ;       ;       ;       ;       ;       ;       ;       ;       ;       
04/03/2024; 22:55:00;    ;       ;       ;       ;       ;       ;       ;       ;       ;       ;       
04/03/2024; 22:56:00;    ;       ;       ;       ;       ;       ;       ;       ;       ;       ;       
04/03/2024; 22:57:00;    ;       ;       ;       ;       ;       ;       ;       ;       ;       ;       
04/03/2024; 22:58:00;    ;       ;       ;       ;       ;       ;       ;       ;       ;       ;       
04/03/2024; 22:59:00;    ;       ;       ;       ;       ;       ;       ;       ;       ;       ;       
04/03/2024; 23:00:00;    ;       ;       ;       ;       ;       ;       ;       ;       ;       ;       
04/03/2024; 23:01:00;    ;       ;       ;       ;       ;       ;       ;       ;       ;       ;       
04/03/2024; 23:02:00;    ;       ;       ;       ;       ;       ;       ;       ;       ;       ;       
04/03/2024; 23:03:00;    ;       ;       ;       ;       ;       ;       ;       ;       ;       ;       
04/03/2024; 23:04:00;    ;       ;       ;       ;       ;       ;       ;       ;       ;       ;       
04/03/2024; 23:05:00;    ;       ;       ;       ;       ;       ;       ;       ;       ;       ;       
04/03/2024; 23:06:00;    ;       ;       ;       ;       ;       ;       ;       ;       ;       ;       
04/03/2024; 23:07:00;    ;       ;       ;       ;       ;       ;       ;       ;       ;       ;       
04/03/2024; 23:08:00;    ;       ;       ;       ;       ;       ;       ;       ;       ;       ;       
04/03/2024; 23:09:00;    ;       ;       ;       ;       ;       ;       ;       ;       ;       ;       
04/03/2024; 23:10:00;    ;       ;       ;       ;       ;       ;       ;       ;       ;       ;       
04/03/2024; 23:11:00;    ;       ;       ;       ;       ;       ;       ;       ;       ;       ;       
04/03/2024; 23:12:00;    ;       ;       ;       ;       ;       ;       ;       ;       ;       ;       
04/03/2024; 23:13:00;    ;       ;       ;       ;       ;       ;       ;       ;       ;       ;       
04/03/2024; 23:14:00;    ;       ;       ;       ;       ;       ;       ;       ;       ;       ;       
04/03/2024; 23:15:00;    ;       ;       ;       ;       ;       ;       ;       ;       ;       ;       
04/03/2024; 23:16:00;    ;       ;       ;       ;       ;       ;       ;       ;       ;       ;       
04/03/2024; 23:17:00;    ;       ;       ;       ;       ;       ;       ;       ;       ;       ;       
04/03/2024; 23:18:00;    ;       ;       ;       ;       ;       ;       ;       ;       ;       ;       
04/03/2024; 23:19:00;    ;       ;       ;       ;       ;       ;       ;       ;       ;       ;       
04/03/2024; 23:20:00;    ;       ;       ;       ;       ;       ;       ;       ;       ;       ;       
04/03/2024; 23:21:00;    ;       ;       ;       ;       ;       ;       ;       ;       ;       ;       
04/03/2024; 23:22:00;    ;       ;       ;       ;       ;       ;       ;       ;       ;       ;       
04/03/2024; 23:23:00;    ;       ;       ;       ;       ;       ;       ;       ;       ;       ;       
04/03/2024; 23:24:00;    ;       ;       ;       ;       ;       ;       ;       ;       ;       ;       
04/03/2024; 23:25:00;    ;       ;       ;       ;       ;       ;       ;       ;       ;       ;       
04/03/2024; 23:26:00;    ;       ;       ;       ;       ;       ;       ;       ;       ;       ;       
04/03/2024; 23:27:00;    ;       ;       ;       ;       ;       ;       ;       ;       ;       ;       
04/03/2024; 23:28:00;    ;       ;       ;       ;       ;       ;       ;       ;       ;       ;       
04/03/2024; 23:29:00;    ;       ;       ;       ;       ;       ;       ;       ;       ;       ;       
04/03/2024; 23:30:00;    ;       ;       ;       ;       ;       ;       ;       ;       ;       ;       
04/03/2024; 23:31:00;    ;       ;       ;       ;       ;       ;       ;       ;       ;       ;       
04/03/2024; 23:32:00;    ;       ;       ;       ;       ;       ;       ;       ;       ;       ;       
04/03/2024; 23:33:00;    ;       ;       ;       ;       ;       ;       ;       ;       ;       ;       
04/03/2024; 23:34:00;    ;       ;       ;       ;       ;       ;       ;       ;       ;       ;       
04/03/2024; 23:35:00;    ;       ;       ;       ;       ;       ;       ;       ;       ;       ;       
04/03/2024; 23:36:00;    ;       ;       ;       ;       ;       ;       ;       ;       ;       ;       
04/03/2024; 23:37:00;    ;       ;       ;       ;       ;       ;       ;       ;       ;       ;       
04/03/2024; 23:38:00;    ;       ;       ;       ;       ;       ;       ;       ;       ;       ;       
04/03/2024; 23:39:00;    ;       ;       ;       ;       ;       ;       ;       ;       ;       ;       
04/03/2024; 23:40:00;    ;       ;       ;       ;       ;       ;       ;       ;       ;       ;       
04/03/2024; 23:41:00;    ;       ;       ;       ;       ;       ;       ;       ;       ;       ;       
04/03/2024; 23:42:00;    ;       ;       ;       ;       ;       ;       ;       ;       ;       ;       
04/03/2024; 23:43:00;    ;       ;       ;       ;       ;       ;       ;       ;       ;       ;       
04/03/2024; 23:44:00;    ;       ;       ;       ;       ;       ;       ;       ;       ;       ;       
04/03/2024; 23:45:00;    ;       ;       ;       ;       ;       ;       ;       ;       ;       ;       
04/03/2024; 23:46:00;    ;       ;       ;       ;       ;       ;       ;       ;       ;       ;       
04/03/2024; 23:47:00;    ;       ;       ;       ;       ;       ;       ;       ;       ;       ;       
04/03/2024; 23:48:00;    ;       ;       ;       ;       ;       ;       ;       ;       ;       ;       
04/03/2024; 23:49:00;    ;       ;       ;       ;       ;       ;       ;       ;       ;       ;       
04/03/2024; 23:50:00;    ;       ;       ;       ;       ;       ;       ;       ;       ;       ;       
04/03/2024; 23:51:00;    ;       ;       ;       ;       ;       ;       ;       ;       ;       ;       
04/03/2024; 23:52:00;    ;       ;       ;       ;       ;       ;       ;       ;       ;       ;       
04/03/2024; 23:53:00;    ;       ;       ;       ;       ;       ;       ;       ;       ;       ;       
04/03/2024; 23:54:00;    ;       ;       ;       ;       ;       ;       ;       ;       ;       ;       
04/03/2024; 23:55:00;    ;       ;       ;       ;       ;       ;       ;       ;       ;       ;       
04/03/2024; 23:56:00;    ;       ;       ;       ;       ;       ;       ;       ;       ;       ;       
04/03/2024; 23:57:00;    ;       ;       ;       ;       ;       ;       ;       ;       ;       ;       
04/03/2024; 23:58:00;    ;       ;       ;       ;       ;       ;       ;       ;       ;       ;       
04/03/2024; 23:59:00;    ;       ;       ;       ;       ;       ;       ;       ;       ;       ;